Time,TemperatureF,DewpointF,PressureIn,WindDirection,WindDirectionDegrees,WindSpeedMPH,WindSpeedGustMPH,Humidity,HourlyPrecipIn,Conditions,Clouds,dailyrainin,SoftwareType,DateUTC
2013-04-12 00:01:00,51.6,14.0,25.81,ENE,65,0.0,0.0,22,0.00,,,0.00,VWS V14.00,2013-04-12 05:01:00,
2013-04-12 00:02:00,51.6,14.0,25.81,ENE,65,0.0,0.0,22,0.00,,,0.00,VWS V14.00,2013-04-12 05:02:00,
2013-04-12 00:04:00,51.8,13.1,25.81,ENE,65,0.0,0.0,21,0.00,,,0.00,VWS V14.00,2013-04-12 05:04:00,
2013-04-12 00:06:00,51.8,13.1,25.81,ENE,65,3.6,3.6,21,0.00,,,0.00,VWS V14.00,2013-04-12 05:06:00,
2013-04-12 00:07:00,51.8,13.1,25.81,ENE,65,0.0,3.6,21,0.00,,,0.00,VWS V14.00,2013-04-12 05:07:00,
2013-04-12 00:09:00,51.6,14.0,25.81,ENE,65,0.0,3.6,22,0.00,,,0.00,VWS V14.00,2013-04-12 05:09:00,
2013-04-12 00:10:00,51.6,14.0,25.81,ENE,65,0.0,3.6,22,0.00,,,0.00,VWS V14.00,2013-04-12 05:10:00,
2013-04-12 00:12:00,51.4,13.9,25.81,ENE,65,0.0,3.6,22,0.00,,,0.00,VWS V14.00,2013-04-12 05:12:00,
2013-04-12 00:13:00,51.4,13.9,25.81,ENE,65,0.0,3.6,22,0.00,,,0.00,VWS V14.00,2013-04-12 05:13:00,
2013-04-12 00:15:00,51.3,13.7,25.81,ENE,65,0.0,3.6,22,0.00,,,0.00,VWS V14.00,2013-04-12 05:15:00,
2013-04-12 00:18:00,50.9,13.4,25.81,ENE,65,0.0,0.0,22,0.00,,,0.00,VWS V14.00,2013-04-12 05:18:00,
2013-04-12 00:19:00,50.7,13.3,25.81,ENE,65,0.0,0.0,22,0.00,,,0.00,VWS V14.00,2013-04-12 05:19:00,
2013-04-12 00:20:00,50.5,13.1,25.81,ENE,65,0.0,0.0,22,0.00,,,0.00,VWS V14.00,2013-04-12 05:20:00,
2013-04-12 00:22:00,50.2,12.8,25.81,ENE,65,0.0,0.0,22,0.00,,,0.00,VWS V14.00,2013-04-12 05:22:00,
2013-04-12 00:23:00,50.2,12.8,25.81,ENE,65,0.0,0.0,22,0.00,,,0.00,VWS V14.00,2013-04-12 05:23:00,
2013-04-12 00:24:00,50.0,12.7,25.81,ENE,65,0.0,0.0,22,0.00,,,0.00,VWS V14.00,2013-04-12 05:24:00,
2013-04-12 00:26:00,49.8,13.5,25.81,ENE,65,0.0,0.0,23,0.00,,,0.00,VWS V14.00,2013-04-12 05:26:00,
2013-04-12 00:27:00,49.6,13.4,25.81,ENE,65,0.0,0.0,23,0.00,,,0.00,VWS V14.00,2013-04-12 05:27:00,
2013-04-12 00:28:00,49.3,13.1,25.81,ENE,65,0.0,0.0,23,0.00,,,0.00,VWS V14.00,2013-04-12 05:28:00,
2013-04-12 00:29:00,49.5,13.2,25.81,ENE,65,0.0,0.0,23,0.00,,,0.00,VWS V14.00,2013-04-12 05:29:00,
2013-04-12 00:31:00,49.3,14.0,25.81,ENE,65,0.0,0.0,24,0.00,,,0.00,VWS V14.00,2013-04-12 05:31:00,
2013-04-12 00:33:00,49.3,14.0,25.81,ENE,66,3.1,3.1,24,0.00,,,0.00,VWS V14.00,2013-04-12 05:33:00,
2013-04-12 00:34:00,49.3,14.0,25.81,ENE,66,0.0,3.1,24,0.00,,,0.00,VWS V14.00,2013-04-12 05:34:00,
2013-04-12 00:37:00,49.3,14.0,25.81,ENE,66,0.0,3.1,24,0.00,,,0.00,VWS V14.00,2013-04-12 05:37:00,
2013-04-12 00:39:00,49.3,14.0,25.81,ENE,66,0.0,3.1,24,0.00,,,0.00,VWS V14.00,2013-04-12 05:39:00,
2013-04-12 00:40:00,49.3,14.0,25.81,ENE,66,0.0,3.1,24,0.00,,,0.00,VWS V14.00,2013-04-12 05:40:00,
2013-04-12 00:43:00,49.6,14.3,25.81,ENE,66,0.0,3.1,24,0.00,,,0.00,VWS V14.00,2013-04-12 05:43:00,
2013-04-12 00:44:00,49.8,14.5,25.81,ENE,66,0.0,3.1,24,0.00,,,0.00,VWS V14.00,2013-04-12 05:44:00,
2013-04-12 00:45:00,50.0,13.7,25.81,ENE,66,0.0,0.0,23,0.00,,,0.00,VWS V14.00,2013-04-12 05:45:00,
2013-04-12 00:48:00,49.8,13.5,25.81,ENE,66,0.0,0.0,23,0.00,,,0.00,VWS V14.00,2013-04-12 05:48:00,
2013-04-12 00:49:00,49.8,14.5,25.81,ENE,66,0.0,0.0,24,0.00,,,0.00,VWS V14.00,2013-04-12 05:49:00,
2013-04-12 00:50:00,49.8,13.5,25.81,ENE,66,0.0,0.0,23,0.00,,,0.00,VWS V14.00,2013-04-12 05:50:00,
2013-04-12 00:54:00,49.6,14.3,25.81,ENE,66,0.0,0.0,24,0.00,,,0.00,VWS V14.00,2013-04-12 05:54:00,
2013-04-12 00:55:00,49.3,14.0,25.81,ENE,66,0.0,0.0,24,0.00,,,0.00,VWS V14.00,2013-04-12 05:55:00,
2013-04-12 00:56:00,49.1,12.9,25.81,ENE,66,0.0,0.0,23,0.00,,,0.00,VWS V14.00,2013-04-12 05:56:00,
2013-04-12 00:59:00,48.7,13.6,25.81,ENE,66,0.0,0.0,24,0.00,,,0.00,VWS V14.00,2013-04-12 05:59:00,
2013-04-12 01:01:00,48.7,13.6,25.81,ENE,66,0.0,0.0,24,0.00,,,0.00,VWS V14.00,2013-04-12 06:01:00,
2013-04-12 01:02:00,48.7,13.6,25.81,ENE,66,0.0,0.0,24,0.00,,,0.00,VWS V14.00,2013-04-12 06:02:00,
2013-04-12 01:04:00,48.2,13.1,25.78,ENE,66,0.0,0.0,24,0.00,,,0.00,VWS V14.00,2013-04-12 06:04:00,
2013-04-12 01:06:00,48.0,13.9,25.78,ENE,66,0.0,0.0,25,0.00,,,0.00,VWS V14.00,2013-04-12 06:06:00,
2013-04-12 01:07:00,47.8,13.7,25.78,ENE,66,0.0,0.0,25,0.00,,,0.00,VWS V14.00,2013-04-12 06:07:00,
2013-04-12 01:08:00,47.7,13.6,25.78,ENE,66,0.0,0.0,25,0.00,,,0.00,VWS V14.00,2013-04-12 06:08:00,
2013-04-12 01:09:00,47.7,13.6,25.78,ENE,66,0.0,0.0,25,0.00,,,0.00,VWS V14.00,2013-04-12 06:09:00,
2013-04-12 01:11:00,47.7,13.6,25.78,ENE,66,0.0,0.0,25,0.00,,,0.00,VWS V14.00,2013-04-12 06:11:00,
2013-04-12 01:12:00,47.8,14.6,25.78,ENE,66,0.0,0.0,26,0.00,,,0.00,VWS V14.00,2013-04-12 06:12:00,
2013-04-12 01:13:00,47.7,14.5,25.78,ENE,66,0.0,0.0,26,0.00,,,0.00,VWS V14.00,2013-04-12 06:13:00,
2013-04-12 01:15:00,47.7,15.3,25.78,ENE,66,0.0,0.0,27,0.00,,,0.00,VWS V14.00,2013-04-12 06:15:00,
2013-04-12 01:16:00,47.7,15.3,25.78,ENE,66,0.0,0.0,27,0.00,,,0.00,VWS V14.00,2013-04-12 06:16:00,
2013-04-12 01:18:00,47.5,15.2,25.78,ENE,66,0.0,0.0,27,0.00,,,0.00,VWS V14.00,2013-04-12 06:18:00,
2013-04-12 01:20:00,47.3,15.9,25.78,ENE,66,0.0,0.0,28,0.00,,,0.00,VWS V14.00,2013-04-12 06:20:00,
2013-04-12 01:22:00,47.1,15.7,25.78,ENE,66,0.0,0.0,28,0.00,,,0.00,VWS V14.00,2013-04-12 06:22:00,
2013-04-12 01:23:00,46.9,15.6,25.78,ENE,66,0.0,0.0,28,0.00,,,0.00,VWS V14.00,2013-04-12 06:23:00,
2013-04-12 01:27:00,46.8,14.6,25.78,ENE,66,0.0,0.0,27,0.00,,,0.00,VWS V14.00,2013-04-12 06:27:00,
2013-04-12 01:28:00,46.8,15.4,25.78,ENE,66,0.0,0.0,28,0.00,,,0.00,VWS V14.00,2013-04-12 06:28:00,
2013-04-12 01:29:00,46.8,15.4,25.78,ENE,66,0.0,0.0,28,0.00,,,0.00,VWS V14.00,2013-04-12 06:29:00,
2013-04-12 01:32:00,46.9,17.1,25.78,ENE,66,0.0,0.0,30,0.00,,,0.00,VWS V14.00,2013-04-12 06:32:00,
2013-04-12 01:34:00,46.8,16.2,25.81,ENE,66,0.0,0.0,29,0.00,,,0.00,VWS V14.00,2013-04-12 06:34:00,
2013-04-12 01:35:00,46.8,15.4,25.81,ENE,66,0.0,0.0,28,0.00,,,0.00,VWS V14.00,2013-04-12 06:35:00,
2013-04-12 01:38:00,46.4,15.1,25.81,ENE,66,0.0,0.0,28,0.00,,,0.00,VWS V14.00,2013-04-12 06:38:00,
2013-04-12 01:39:00,46.4,15.1,25.81,ENE,66,0.0,0.0,28,0.00,,,0.00,VWS V14.00,2013-04-12 06:39:00,
2013-04-12 01:40:00,46.2,15.7,25.81,ENE,66,0.0,0.0,29,0.00,,,0.00,VWS V14.00,2013-04-12 06:40:00,
2013-04-12 01:41:00,46.2,16.5,25.81,ENE,66,0.0,0.0,30,0.00,,,0.00,VWS V14.00,2013-04-12 06:41:00,
2013-04-12 01:44:00,46.2,15.7,25.81,ENE,66,0.0,0.0,29,0.00,,,0.00,VWS V14.00,2013-04-12 06:44:00,
2013-04-12 01:45:00,46.0,15.6,25.81,ENE,66,0.0,0.0,29,0.00,,,0.00,VWS V14.00,2013-04-12 06:45:00,
2013-04-12 01:48:00,45.9,16.2,25.81,ENE,66,0.0,0.0,30,0.00,,,0.00,VWS V14.00,2013-04-12 06:48:00,
2013-04-12 01:49:00,45.9,16.2,25.78,ENE,66,0.0,0.0,30,0.00,,,0.00,VWS V14.00,2013-04-12 06:49:00,
2013-04-12 01:50:00,45.7,16.0,25.78,ENE,66,0.0,0.0,30,0.00,,,0.00,VWS V14.00,2013-04-12 06:50:00,
2013-04-12 01:53:00,45.5,15.9,25.78,ENE,66,0.0,0.0,30,0.00,,,0.00,VWS V14.00,2013-04-12 06:53:00,
2013-04-12 01:55:00,45.5,16.6,25.78,ENE,66,0.0,0.0,31,0.00,,,0.00,VWS V14.00,2013-04-12 06:55:00,
2013-04-12 01:56:00,45.5,16.6,25.78,ENE,66,0.0,0.0,31,0.00,,,0.00,VWS V14.00,2013-04-12 06:56:00,
2013-04-12 01:59:00,45.5,17.4,25.78,ENE,66,0.0,0.0,32,0.00,,,0.00,VWS V14.00,2013-04-12 06:59:00,
2013-04-12 02:00:00,45.5,17.4,25.78,ENE,66,0.0,0.0,32,0.00,,,0.00,VWS V14.00,2013-04-12 07:00:00,
2013-04-12 02:01:00,45.5,18.1,25.78,ENE,66,0.0,0.0,33,0.00,,,0.00,VWS V14.00,2013-04-12 07:01:00,
2013-04-12 02:03:00,45.5,18.1,25.78,ENE,66,0.0,0.0,33,0.00,,,0.00,VWS V14.00,2013-04-12 07:03:00,
2013-04-12 02:05:00,45.3,18.6,25.78,ENE,66,0.0,0.0,34,0.00,,,0.00,VWS V14.00,2013-04-12 07:05:00,
2013-04-12 02:06:00,45.1,18.5,25.78,ENE,66,0.0,0.0,34,0.00,,,0.00,VWS V14.00,2013-04-12 07:06:00,
2013-04-12 02:07:00,45.0,18.3,25.78,ENE,66,0.0,0.0,34,0.00,,,0.00,VWS V14.00,2013-04-12 07:07:00,
2013-04-12 02:09:00,44.8,17.5,25.78,ENE,66,0.0,0.0,33,0.00,,,0.00,VWS V14.00,2013-04-12 07:09:00,
2013-04-12 02:10:00,44.6,17.3,25.78,ENE,66,0.0,0.0,33,0.00,,,0.00,VWS V14.00,2013-04-12 07:10:00,
2013-04-12 02:12:00,44.4,17.8,25.78,ENE,66,0.0,0.0,34,0.00,,,0.00,VWS V14.00,2013-04-12 07:12:00,
2013-04-12 02:13:00,44.4,17.8,25.78,ENE,66,0.0,0.0,34,0.00,,,0.00,VWS V14.00,2013-04-12 07:13:00,
2013-04-12 02:14:00,44.6,18.0,25.78,ENE,66,0.0,0.0,34,0.00,,,0.00,VWS V14.00,2013-04-12 07:14:00,
2013-04-12 02:15:00,44.6,18.0,25.78,ENE,66,0.0,0.0,34,0.00,,,0.00,VWS V14.00,2013-04-12 07:15:00,
2013-04-12 02:17:00,44.8,18.1,25.78,ENE,66,0.0,0.0,34,0.00,,,0.00,VWS V14.00,2013-04-12 07:17:00,
2013-04-12 02:18:00,44.8,18.1,25.78,ENE,66,0.0,0.0,34,0.00,,,0.00,VWS V14.00,2013-04-12 07:18:00,
2013-04-12 02:19:00,45.0,18.3,25.78,ENE,66,0.0,0.0,34,0.00,,,0.00,VWS V14.00,2013-04-12 07:19:00,
2013-04-12 02:22:00,44.8,18.1,25.78,ENE,66,0.0,0.0,34,0.00,,,0.00,VWS V14.00,2013-04-12 07:22:00,
2013-04-12 02:23:00,44.8,18.1,25.78,ENE,66,0.0,0.0,34,0.00,,,0.00,VWS V14.00,2013-04-12 07:23:00,
2013-04-12 02:24:00,44.8,18.1,25.78,ENE,66,0.0,0.0,34,0.00,,,0.00,VWS V14.00,2013-04-12 07:24:00,
2013-04-12 02:27:00,44.6,18.0,25.78,ENE,66,0.0,0.0,34,0.00,,,0.00,VWS V14.00,2013-04-12 07:27:00,
2013-04-12 02:29:00,44.4,18.5,25.78,ENE,66,0.0,0.0,35,0.00,,,0.00,VWS V14.00,2013-04-12 07:29:00,
2013-04-12 02:30:00,44.4,18.5,25.78,ENE,66,0.0,0.0,35,0.00,,,0.00,VWS V14.00,2013-04-12 07:30:00,
2013-04-12 02:33:00,44.2,17.7,25.78,ENE,66,0.0,0.0,34,0.00,,,0.00,VWS V14.00,2013-04-12 07:33:00,
2013-04-12 02:34:00,44.1,17.5,25.75,ENE,66,0.0,0.0,34,0.00,,,0.00,VWS V14.00,2013-04-12 07:34:00,
2013-04-12 02:36:00,44.1,17.5,25.75,ENE,66,0.0,0.0,34,0.00,,,0.00,VWS V14.00,2013-04-12 07:36:00,
2013-04-12 02:38:00,43.9,17.4,25.75,ENE,66,0.0,0.0,34,0.00,,,0.00,VWS V14.00,2013-04-12 07:38:00,
2013-04-12 02:40:00,43.9,17.4,25.75,ENE,66,0.0,0.0,34,0.00,,,0.00,VWS V14.00,2013-04-12 07:40:00,
2013-04-12 02:42:00,43.9,17.4,25.75,ENE,66,0.0,0.0,34,0.00,,,0.00,VWS V14.00,2013-04-12 07:42:00,
2013-04-12 02:44:00,43.9,17.4,25.75,ENE,66,0.0,0.0,34,0.00,,,0.00,VWS V14.00,2013-04-12 07:44:00,
2013-04-12 02:45:00,43.9,17.4,25.75,ENE,66,0.0,0.0,34,0.00,,,0.00,VWS V14.00,2013-04-12 07:45:00,
2013-04-12 02:47:00,43.9,18.0,25.75,ENE,66,0.0,0.0,35,0.00,,,0.00,VWS V14.00,2013-04-12 07:47:00,
2013-04-12 02:48:00,43.9,18.0,25.75,ENE,66,0.0,0.0,35,0.00,,,0.00,VWS V14.00,2013-04-12 07:48:00,
2013-04-12 02:50:00,44.1,17.5,25.75,ENE,66,0.0,0.0,34,0.00,,,0.00,VWS V14.00,2013-04-12 07:50:00,
2013-04-12 02:53:00,44.2,17.7,25.75,ENE,66,0.0,0.0,34,0.00,,,0.00,VWS V14.00,2013-04-12 07:53:00,
2013-04-12 02:54:00,44.2,17.7,25.75,ENE,66,0.0,0.0,34,0.00,,,0.00,VWS V14.00,2013-04-12 07:54:00,
2013-04-12 02:55:00,44.2,17.7,25.75,ENE,66,0.0,0.0,34,0.00,,,0.00,VWS V14.00,2013-04-12 07:55:00,
2013-04-12 02:56:00,44.1,18.2,25.75,ENE,66,0.0,0.0,35,0.00,,,0.00,VWS V14.00,2013-04-12 07:56:00,
2013-04-12 02:58:00,43.9,17.4,25.75,ENE,66,0.0,0.0,34,0.00,,,0.00,VWS V14.00,2013-04-12 07:58:00,
2013-04-12 02:59:00,43.7,17.2,25.75,ENE,66,0.0,0.0,34,0.00,,,0.00,VWS V14.00,2013-04-12 07:59:00,
2013-04-12 03:02:00,43.7,17.2,25.75,ENE,66,0.0,0.0,34,0.00,,,0.00,VWS V14.00,2013-04-12 08:02:00,
2013-04-12 03:03:00,43.5,17.7,25.75,ENE,66,0.0,0.0,35,0.00,,,0.00,VWS V14.00,2013-04-12 08:03:00,
2013-04-12 03:04:00,43.3,17.5,25.75,ENE,66,0.0,0.0,35,0.00,,,0.00,VWS V14.00,2013-04-12 08:04:00,
2013-04-12 03:07:00,43.3,16.9,25.75,ENE,66,0.0,0.0,34,0.00,,,0.00,VWS V14.00,2013-04-12 08:07:00,
2013-04-12 03:08:00,43.3,16.9,25.75,ENE,66,0.0,0.0,34,0.00,,,0.00,VWS V14.00,2013-04-12 08:08:00,
2013-04-12 03:09:00,43.3,16.9,25.75,ENE,66,0.0,0.0,34,0.00,,,0.00,VWS V14.00,2013-04-12 08:09:00,
2013-04-12 03:10:00,43.3,17.5,25.75,ENE,66,0.0,0.0,35,0.00,,,0.00,VWS V14.00,2013-04-12 08:10:00,
2013-04-12 03:12:00,43.2,17.4,25.75,ENE,66,0.0,0.0,35,0.00,,,0.00,VWS V14.00,2013-04-12 08:12:00,
2013-04-12 03:13:00,43.0,17.2,25.75,ENE,66,0.0,0.0,35,0.00,,,0.00,VWS V14.00,2013-04-12 08:13:00,
2013-04-12 03:14:00,43.0,17.2,25.75,ENE,66,0.0,0.0,35,0.00,,,0.00,VWS V14.00,2013-04-12 08:14:00,
2013-04-12 03:17:00,43.0,17.2,25.75,ENE,66,0.0,0.0,35,0.00,,,0.00,VWS V14.00,2013-04-12 08:17:00,
2013-04-12 03:19:00,42.8,17.1,25.72,ENE,66,0.0,0.0,35,0.00,,,0.00,VWS V14.00,2013-04-12 08:19:00,
2013-04-12 03:20:00,42.8,17.1,25.72,ENE,66,0.0,0.0,35,0.00,,,0.00,VWS V14.00,2013-04-12 08:20:00,
2013-04-12 03:23:00,43.0,17.9,25.72,ENE,66,0.0,0.0,36,0.00,,,0.00,VWS V14.00,2013-04-12 08:23:00,
2013-04-12 03:24:00,43.0,17.9,25.72,ENE,66,0.0,0.0,36,0.00,,,0.00,VWS V14.00,2013-04-12 08:24:00,
2013-04-12 03:26:00,43.2,18.0,25.72,ENE,66,0.0,0.0,36,0.00,,,0.00,VWS V14.00,2013-04-12 08:26:00,
2013-04-12 03:28:00,43.2,18.0,25.72,ENE,66,0.0,0.0,36,0.00,,,0.00,VWS V14.00,2013-04-12 08:28:00,
2013-04-12 03:29:00,43.2,18.0,25.72,ENE,66,0.0,0.0,36,0.00,,,0.00,VWS V14.00,2013-04-12 08:29:00,
2013-04-12 03:30:00,43.3,18.8,25.72,ENE,66,0.0,0.0,37,0.00,,,0.00,VWS V14.00,2013-04-12 08:30:00,
2013-04-12 03:31:00,43.3,18.8,25.72,ENE,66,0.0,0.0,37,0.00,,,0.00,VWS V14.00,2013-04-12 08:31:00,
2013-04-12 03:33:00,43.5,19.0,25.72,ENE,66,0.0,0.0,37,0.00,,,0.00,VWS V14.00,2013-04-12 08:33:00,
2013-04-12 03:34:00,43.5,19.0,25.72,ENE,66,0.0,0.0,37,0.00,,,0.00,VWS V14.00,2013-04-12 08:34:00,
2013-04-12 03:36:00,43.5,19.0,25.72,ENE,66,0.0,0.0,37,0.00,,,0.00,VWS V14.00,2013-04-12 08:36:00,
2013-04-12 03:39:00,43.5,19.6,25.72,ENE,66,0.0,0.0,38,0.00,,,0.00,VWS V14.00,2013-04-12 08:39:00,
2013-04-12 03:40:00,43.7,19.8,25.72,ENE,66,0.0,0.0,38,0.00,,,0.00,VWS V14.00,2013-04-12 08:40:00,
2013-04-12 03:42:00,43.5,20.2,25.72,ENE,66,0.0,0.0,39,0.00,,,0.00,VWS V14.00,2013-04-12 08:42:00,
2013-04-12 03:45:00,43.3,20.1,25.72,ENE,66,0.0,0.0,39,0.00,,,0.00,VWS V14.00,2013-04-12 08:45:00,
2013-04-12 03:47:00,43.0,20.3,25.72,ENE,66,0.0,0.0,40,0.00,,,0.00,VWS V14.00,2013-04-12 08:47:00,
2013-04-12 03:50:00,43.5,25.6,25.72,ENE,66,0.0,0.0,49,0.00,,,0.00,VWS V14.00,2013-04-12 08:50:00,
2013-04-12 03:51:00,43.5,25.6,25.72,ENE,66,0.0,0.0,49,0.00,,,0.00,VWS V14.00,2013-04-12 08:51:00,
2013-04-12 03:52:00,43.7,28.6,25.72,ENE,66,0.0,0.0,55,0.00,,,0.00,VWS V14.00,2013-04-12 08:52:00,
2013-04-12 03:57:00,43.3,30.0,25.72,ENE,66,0.0,0.0,59,0.00,,,0.00,VWS V14.00,2013-04-12 08:57:00,
2013-04-12 03:58:00,43.3,30.0,25.72,ENE,66,0.0,0.0,59,0.00,,,0.00,VWS V14.00,2013-04-12 08:58:00,
2013-04-12 04:03:00,43.2,30.6,25.72,ENE,66,0.0,0.0,61,0.00,,,0.00,VWS V14.00,2013-04-12 09:03:00,
2013-04-12 04:04:00,43.0,30.5,25.69,ENE,66,0.0,0.0,61,0.00,,,0.00,VWS V14.00,2013-04-12 09:04:00,
2013-04-12 04:08:00,42.6,29.3,25.69,ENE,66,0.0,0.0,59,0.00,,,0.00,VWS V14.00,2013-04-12 09:08:00,
2013-04-12 04:10:00,42.3,28.5,25.69,ENE,66,0.0,0.0,58,0.00,,,0.00,VWS V14.00,2013-04-12 09:10:00,
2013-04-12 04:13:00,42.1,28.8,25.69,ENE,66,0.0,0.0,59,0.00,,,0.00,VWS V14.00,2013-04-12 09:13:00,
2013-04-12 04:15:00,42.1,29.2,25.69,ENE,66,0.0,0.0,60,0.00,,,0.00,VWS V14.00,2013-04-12 09:15:00,
2013-04-12 04:18:00,42.3,30.6,25.69,ENE,66,0.0,0.0,63,0.00,,,0.00,VWS V14.00,2013-04-12 09:18:00,
2013-04-12 04:19:00,42.3,30.6,25.69,ENE,66,0.0,0.0,63,0.00,,,0.00,VWS V14.00,2013-04-12 09:19:00,
2013-04-12 04:20:00,42.4,31.5,25.69,ENE,66,0.0,0.0,65,0.00,,,0.00,VWS V14.00,2013-04-12 09:20:00,
2013-04-12 04:23:00,43.0,32.8,25.69,ENE,66,0.0,0.0,67,0.00,,,0.00,VWS V14.00,2013-04-12 09:23:00,
2013-04-12 04:24:00,43.0,33.2,25.69,ENE,66,0.0,0.0,68,0.00,,,0.00,VWS V14.00,2013-04-12 09:24:00,
2013-04-12 04:26:00,43.0,33.2,25.69,ENE,66,0.0,0.0,68,0.00,,,0.00,VWS V14.00,2013-04-12 09:26:00,
2013-04-12 04:28:00,42.8,33.0,25.69,ENE,66,0.0,0.0,68,0.00,,,0.00,VWS V14.00,2013-04-12 09:28:00,
2013-04-12 04:30:00,42.6,32.8,25.69,ENE,66,0.0,0.0,68,0.00,,,0.00,VWS V14.00,2013-04-12 09:30:00,
2013-04-12 04:31:00,42.4,32.6,25.69,ENE,66,0.0,0.0,68,0.00,,,0.00,VWS V14.00,2013-04-12 09:31:00,
2013-04-12 04:34:00,42.3,31.4,25.69,ENE,66,0.0,0.0,65,0.00,,,0.00,VWS V14.00,2013-04-12 09:34:00,
2013-04-12 04:35:00,42.1,30.4,25.69,ENE,66,0.0,0.0,63,0.00,,,0.00,VWS V14.00,2013-04-12 09:35:00,
2013-04-12 04:37:00,42.1,30.0,25.69,ENE,66,0.0,0.0,62,0.00,,,0.00,VWS V14.00,2013-04-12 09:37:00,
2013-04-12 04:40:00,41.7,28.9,25.69,ENE,66,0.0,0.0,60,0.00,,,0.00,VWS V14.00,2013-04-12 09:40:00,
2013-04-12 04:42:00,41.7,28.5,25.69,ENE,66,0.0,0.0,59,0.00,,,0.00,VWS V14.00,2013-04-12 09:42:00,
2013-04-12 04:43:00,41.7,28.5,25.69,ENE,66,0.0,0.0,59,0.00,,,0.00,VWS V14.00,2013-04-12 09:43:00,
2013-04-12 04:45:00,41.5,29.1,25.69,ENE,66,0.0,0.0,61,0.00,,,0.00,VWS V14.00,2013-04-12 09:45:00,
2013-04-12 04:47:00,41.5,30.3,25.69,ENE,66,0.0,0.0,64,0.00,,,0.00,VWS V14.00,2013-04-12 09:47:00,
2013-04-12 04:48:00,41.5,30.7,25.69,ENE,66,0.0,0.0,65,0.00,,,0.00,VWS V14.00,2013-04-12 09:48:00,
2013-04-12 04:49:00,41.5,31.0,25.69,ENE,66,0.0,0.0,66,0.00,,,0.00,VWS V14.00,2013-04-12 09:49:00,
2013-04-12 04:50:00,41.5,31.4,25.69,ENE,66,0.0,0.0,67,0.00,,,0.00,VWS V14.00,2013-04-12 09:50:00,
2013-04-12 04:53:00,41.7,32.3,25.69,ENE,66,0.0,0.0,69,0.00,,,0.00,VWS V14.00,2013-04-12 09:53:00,
2013-04-12 04:54:00,41.7,32.3,25.69,ENE,66,0.0,0.0,69,0.00,,,0.00,VWS V14.00,2013-04-12 09:54:00,
2013-04-12 04:55:00,41.7,32.3,25.69,ENE,66,0.0,0.0,69,0.00,,,0.00,VWS V14.00,2013-04-12 09:55:00,
2013-04-12 04:56:00,41.7,32.3,25.69,ENE,66,0.0,0.0,69,0.00,,,0.00,VWS V14.00,2013-04-12 09:56:00,
2013-04-12 04:59:00,41.7,32.0,25.69,ENE,66,0.0,0.0,68,0.00,,,0.00,VWS V14.00,2013-04-12 09:59:00,
2013-04-12 05:00:00,41.7,32.0,25.69,ENE,66,0.0,0.0,68,0.00,,,0.00,VWS V14.00,2013-04-12 10:00:00,
2013-04-12 05:01:00,41.9,31.8,25.69,ENE,66,0.0,0.0,67,0.00,,,0.00,VWS V14.00,2013-04-12 10:01:00,
2013-04-12 05:04:00,41.7,30.8,25.69,ENE,66,0.0,0.0,65,0.00,,,0.00,VWS V14.00,2013-04-12 10:04:00,
2013-04-12 05:05:00,41.7,30.5,25.69,ENE,66,0.0,0.0,64,0.00,,,0.00,VWS V14.00,2013-04-12 10:05:00,
2013-04-12 05:09:00,41.7,30.1,25.69,ENE,66,0.0,0.0,63,0.00,,,0.00,VWS V14.00,2013-04-12 10:09:00,
2013-04-12 05:10:00,41.5,30.3,25.69,ENE,66,0.0,0.0,64,0.00,,,0.00,VWS V14.00,2013-04-12 10:10:00,
2013-04-12 05:12:00,41.2,29.9,25.69,ENE,66,0.0,0.0,64,0.00,,,0.00,VWS V14.00,2013-04-12 10:12:00,
2013-04-12 05:14:00,41.4,30.9,25.69,ENE,66,0.0,0.0,66,0.00,,,0.00,VWS V14.00,2013-04-12 10:14:00,
2013-04-12 05:15:00,41.5,31.0,25.69,ENE,66,0.0,0.0,66,0.00,,,0.00,VWS V14.00,2013-04-12 10:15:00,
2013-04-12 05:18:00,41.5,31.4,25.69,ENE,66,0.0,0.0,67,0.00,,,0.00,VWS V14.00,2013-04-12 10:18:00,
2013-04-12 05:20:00,41.5,31.0,25.69,ENE,66,0.0,0.0,66,0.00,,,0.00,VWS V14.00,2013-04-12 10:20:00,
2013-04-12 05:21:00,41.5,31.0,25.69,ENE,66,0.0,0.0,66,0.00,,,0.00,VWS V14.00,2013-04-12 10:21:00,
2013-04-12 05:24:00,41.5,30.3,25.69,ENE,66,0.0,0.0,64,0.00,,,0.00,VWS V14.00,2013-04-12 10:24:00,
2013-04-12 05:27:00,41.4,30.1,25.69,ENE,66,0.0,0.0,64,0.00,,,0.00,VWS V14.00,2013-04-12 10:27:00,
2013-04-12 05:29:00,41.2,29.9,25.69,ENE,66,0.0,0.0,64,0.00,,,0.00,VWS V14.00,2013-04-12 10:29:00,
2013-04-12 05:31:00,41.2,30.3,25.69,ENE,66,0.0,0.0,65,0.00,,,0.00,VWS V14.00,2013-04-12 10:31:00,
2013-04-12 05:32:00,41.2,30.3,25.69,ENE,66,0.0,0.0,65,0.00,,,0.00,VWS V14.00,2013-04-12 10:32:00,
2013-04-12 05:34:00,41.4,29.7,25.69,ENE,66,0.0,0.0,63,0.00,,,0.00,VWS V14.00,2013-04-12 10:34:00,
2013-04-12 05:35:00,41.2,29.6,25.69,ENE,66,0.0,0.0,63,0.00,,,0.00,VWS V14.00,2013-04-12 10:35:00,
2013-04-12 05:38:00,41.2,29.2,25.69,ENE,66,0.0,0.0,62,0.00,,,0.00,VWS V14.00,2013-04-12 10:38:00,
2013-04-12 05:39:00,41.2,28.8,25.69,ENE,66,0.0,0.0,61,0.00,,,0.00,VWS V14.00,2013-04-12 10:39:00,
2013-04-12 05:42:00,41.2,28.4,25.69,ENE,66,0.0,0.0,60,0.00,,,0.00,VWS V14.00,2013-04-12 10:42:00,
2013-04-12 05:43:00,41.2,28.4,25.69,ENE,66,0.0,0.0,60,0.00,,,0.00,VWS V14.00,2013-04-12 10:43:00,
2013-04-12 05:44:00,41.2,28.8,25.69,ENE,66,0.0,0.0,61,0.00,,,0.00,VWS V14.00,2013-04-12 10:44:00,
2013-04-12 05:47:00,41.0,29.4,25.69,ENE,66,0.0,0.0,63,0.00,,,0.00,VWS V14.00,2013-04-12 10:47:00,
2013-04-12 05:48:00,41.0,29.4,25.69,ENE,66,0.0,0.0,63,0.00,,,0.00,VWS V14.00,2013-04-12 10:48:00,
2013-04-12 05:50:00,41.0,29.4,25.69,ENE,66,0.0,0.0,63,0.00,,,0.00,VWS V14.00,2013-04-12 10:50:00,
2013-04-12 05:53:00,41.2,30.7,25.69,ENE,66,0.0,0.0,66,0.00,,,0.00,VWS V14.00,2013-04-12 10:53:00,
2013-04-12 05:54:00,41.0,30.9,25.69,ENE,66,0.0,0.0,67,0.00,,,0.00,VWS V14.00,2013-04-12 10:54:00,
2013-04-12 05:55:00,40.8,31.1,25.69,ENE,66,0.0,0.0,68,0.00,,,0.00,VWS V14.00,2013-04-12 10:55:00,
2013-04-12 05:59:00,41.0,31.6,25.69,ENE,66,0.0,0.0,69,0.00,,,0.00,VWS V14.00,2013-04-12 10:59:00,
2013-04-12 06:00:00,40.8,31.8,25.69,ENE,66,0.0,0.0,70,0.00,,,0.00,VWS V14.00,2013-04-12 11:00:00,
2013-04-12 06:04:00,40.5,31.8,25.69,ENE,66,0.0,0.0,71,0.00,,,0.00,VWS V14.00,2013-04-12 11:04:00,
2013-04-12 06:05:00,40.5,31.8,25.69,ENE,66,0.0,0.0,71,0.00,,,0.00,VWS V14.00,2013-04-12 11:05:00,
2013-04-12 06:06:00,40.5,31.8,25.69,ENE,66,0.0,0.0,71,0.00,,,0.00,VWS V14.00,2013-04-12 11:06:00,
2013-04-12 06:09:00,40.3,31.6,25.69,ENE,66,0.0,0.0,71,0.00,,,0.00,VWS V14.00,2013-04-12 11:09:00,
2013-04-12 06:11:00,40.5,32.2,25.69,ENE,66,0.0,0.0,72,0.00,,,0.00,VWS V14.00,2013-04-12 11:11:00,
2013-04-12 06:13:00,40.8,32.8,25.69,ENE,66,0.0,0.0,73,0.00,,,0.00,VWS V14.00,2013-04-12 11:13:00,
2013-04-12 06:14:00,40.8,32.8,25.69,ENE,66,0.0,0.0,73,0.00,,,0.00,VWS V14.00,2013-04-12 11:14:00,
2013-04-12 06:16:00,40.8,33.2,25.69,ENE,66,0.0,0.0,74,0.00,,,0.00,VWS V14.00,2013-04-12 11:16:00,
2013-04-12 06:18:00,41.0,33.4,25.69,ENE,66,0.0,0.0,74,0.00,,,0.00,VWS V14.00,2013-04-12 11:18:00,
2013-04-12 06:20:00,41.0,33.4,25.69,ENE,66,0.0,0.0,74,0.00,,,0.00,VWS V14.00,2013-04-12 11:20:00,
2013-04-12 06:22:00,41.0,33.4,25.69,ENE,66,0.0,0.0,74,0.00,,,0.00,VWS V14.00,2013-04-12 11:22:00,
2013-04-12 06:24:00,40.8,32.8,25.69,ENE,66,0.0,0.0,73,0.00,,,0.00,VWS V14.00,2013-04-12 11:24:00,
2013-04-12 06:25:00,40.8,32.5,25.69,ENE,66,0.0,0.0,72,0.00,,,0.00,VWS V14.00,2013-04-12 11:25:00,
2013-04-12 06:28:00,40.6,32.0,25.69,ENE,66,0.0,0.0,71,0.00,,,0.00,VWS V14.00,2013-04-12 11:28:00,
2013-04-12 06:29:00,40.6,32.0,25.69,ENE,66,0.0,0.0,71,0.00,,,0.00,VWS V14.00,2013-04-12 11:29:00,
2013-04-12 06:30:00,40.6,32.0,25.69,ENE,66,0.0,0.0,71,0.00,,,0.00,VWS V14.00,2013-04-12 11:30:00,
2013-04-12 06:33:00,40.6,32.7,25.69,ENE,66,0.0,0.0,73,0.00,,,0.00,VWS V14.00,2013-04-12 11:33:00,
2013-04-12 06:35:00,40.6,33.0,25.69,ENE,66,0.0,0.0,74,0.00,,,0.00,VWS V14.00,2013-04-12 11:35:00,
2013-04-12 06:39:00,40.6,32.3,25.69,ENE,66,0.0,0.0,72,0.00,,,0.00,VWS V14.00,2013-04-12 11:39:00,
2013-04-12 06:40:00,40.6,32.3,25.69,ENE,66,0.0,0.0,72,0.00,,,0.00,VWS V14.00,2013-04-12 11:40:00,
2013-04-12 06:42:00,40.5,31.8,25.69,ENE,66,0.0,0.0,71,0.00,,,0.00,VWS V14.00,2013-04-12 11:42:00,
2013-04-12 06:44:00,40.3,31.6,25.69,ENE,66,0.0,0.0,71,0.00,,,0.00,VWS V14.00,2013-04-12 11:44:00,
2013-04-12 06:45:00,40.1,31.1,25.69,ENE,66,0.0,0.0,70,0.00,,,0.00,VWS V14.00,2013-04-12 11:45:00,
2013-04-12 06:46:00,40.1,31.1,25.69,ENE,66,0.0,0.0,70,0.00,,,0.00,VWS V14.00,2013-04-12 11:46:00,
2013-04-12 06:48:00,40.1,30.8,25.69,ENE,66,0.0,0.0,69,0.00,,,0.00,VWS V14.00,2013-04-12 11:48:00,
2013-04-12 06:49:00,39.9,30.2,25.69,ENE,66,0.0,0.0,68,0.00,,,0.00,VWS V14.00,2013-04-12 11:49:00,
2013-04-12 06:51:00,39.9,29.9,25.69,ENE,66,0.0,0.0,67,0.00,,,0.00,VWS V14.00,2013-04-12 11:51:00,
2013-04-12 06:52:00,39.9,29.9,25.69,ENE,66,0.0,0.0,67,0.00,,,0.00,VWS V14.00,2013-04-12 11:52:00,
2013-04-12 06:53:00,39.9,29.9,25.69,ENE,66,0.0,0.0,67,0.00,,,0.00,VWS V14.00,2013-04-12 11:53:00,
2013-04-12 06:55:00,39.9,29.5,25.69,ENE,66,0.0,0.0,66,0.00,,,0.00,VWS V14.00,2013-04-12 11:55:00,
2013-04-12 06:57:00,39.7,29.3,25.69,ENE,66,0.0,0.0,66,0.00,,,0.00,VWS V14.00,2013-04-12 11:57:00,
2013-04-12 06:59:00,39.7,29.7,25.69,ENE,66,0.0,0.0,67,0.00,,,0.00,VWS V14.00,2013-04-12 11:59:00,
2013-04-12 07:02:00,39.7,30.4,25.69,ENE,66,0.0,0.0,69,0.00,,,0.00,VWS V14.00,2013-04-12 12:02:00,
2013-04-12 07:04:00,39.9,30.9,25.69,ENE,66,0.0,0.0,70,0.00,,,0.00,VWS V14.00,2013-04-12 12:04:00,
2013-04-12 07:05:00,39.9,30.9,25.69,ENE,66,0.0,0.0,70,0.00,,,0.00,VWS V14.00,2013-04-12 12:05:00,
2013-04-12 07:07:00,39.9,30.6,25.69,ENE,66,0.0,0.0,69,0.00,,,0.00,VWS V14.00,2013-04-12 12:07:00,
2013-04-12 07:09:00,40.1,30.4,25.69,ENE,66,0.0,0.0,68,0.00,,,0.00,VWS V14.00,2013-04-12 12:09:00,
2013-04-12 07:10:00,40.1,30.4,25.69,ENE,66,0.0,0.0,68,0.00,,,0.00,VWS V14.00,2013-04-12 12:10:00,
2013-04-12 07:12:00,40.1,30.0,25.69,ENE,66,0.0,0.0,67,0.00,,,0.00,VWS V14.00,2013-04-12 12:12:00,
2013-04-12 07:14:00,39.9,29.9,25.69,ENE,66,0.0,0.0,67,0.00,,,0.00,VWS V14.00,2013-04-12 12:14:00,
2013-04-12 07:16:00,39.9,29.9,25.69,ENE,66,0.0,0.0,67,0.00,,,0.00,VWS V14.00,2013-04-12 12:16:00,
2013-04-12 07:18:00,40.1,30.8,25.69,ENE,66,0.0,0.0,69,0.00,,,0.00,VWS V14.00,2013-04-12 12:18:00,
2013-04-12 07:19:00,40.3,31.3,25.69,ENE,66,0.0,0.0,70,0.00,,,0.00,VWS V14.00,2013-04-12 12:19:00,
2013-04-12 07:21:00,40.1,31.1,25.69,ENE,66,0.0,0.0,70,0.00,,,0.00,VWS V14.00,2013-04-12 12:21:00,
2013-04-12 07:24:00,40.3,32.0,25.69,ENE,66,0.0,0.0,72,0.00,,,0.00,VWS V14.00,2013-04-12 12:24:00,
2013-04-12 07:25:00,40.3,32.0,25.69,ENE,66,0.0,0.0,72,0.00,,,0.00,VWS V14.00,2013-04-12 12:25:00,
2013-04-12 07:26:00,40.5,32.5,25.69,ENE,66,0.0,0.0,73,0.00,,,0.00,VWS V14.00,2013-04-12 12:26:00,
2013-04-12 07:27:00,40.6,32.7,25.69,ENE,66,0.0,0.0,73,0.00,,,0.00,VWS V14.00,2013-04-12 12:27:00,
2013-04-12 07:30:00,40.8,32.8,25.69,ENE,66,0.0,0.0,73,0.00,,,0.00,VWS V14.00,2013-04-12 12:30:00,
2013-04-12 07:32:00,41.0,32.7,25.69,ENE,66,0.0,0.0,72,0.00,,,0.00,VWS V14.00,2013-04-12 12:32:00,
2013-04-12 07:35:00,41.2,33.2,25.69,ENE,66,0.0,0.0,73,0.00,,,0.00,VWS V14.00,2013-04-12 12:35:00,
2013-04-12 07:36:00,41.2,33.2,25.69,ENE,66,0.0,0.0,73,0.00,,,0.00,VWS V14.00,2013-04-12 12:36:00,
2013-04-12 07:38:00,41.5,33.5,25.69,ENE,66,0.0,0.0,73,0.00,,,0.00,VWS V14.00,2013-04-12 12:38:00,
2013-04-12 07:41:00,41.7,34.1,25.69,ENE,66,0.0,0.0,74,0.00,,,0.00,VWS V14.00,2013-04-12 12:41:00,
2013-04-12 07:42:00,41.7,34.4,25.69,ENE,66,0.0,0.0,75,0.00,,,0.00,VWS V14.00,2013-04-12 12:42:00,
2013-04-12 07:45:00,42.1,34.7,25.69,ENE,66,0.0,0.0,75,0.00,,,0.00,VWS V14.00,2013-04-12 12:45:00,
2013-04-12 07:47:00,42.4,35.1,25.69,ENE,66,0.0,0.0,75,0.00,,,0.00,VWS V14.00,2013-04-12 12:47:00,
2013-04-12 07:48:00,42.4,35.1,25.69,ENE,66,0.0,0.0,75,0.00,,,0.00,VWS V14.00,2013-04-12 12:48:00,
2013-04-12 07:52:00,42.8,35.4,25.69,ENE,66,0.0,0.0,75,0.00,,,0.00,VWS V14.00,2013-04-12 12:52:00,
2013-04-12 07:53:00,43.0,35.6,25.69,ENE,66,0.0,0.0,75,0.00,,,0.00,VWS V14.00,2013-04-12 12:53:00,
2013-04-12 07:54:00,43.0,35.6,25.69,ENE,66,0.0,0.0,75,0.00,,,0.00,VWS V14.00,2013-04-12 12:54:00,
2013-04-12 07:55:00,43.0,35.6,25.69,ENE,66,0.0,0.0,75,0.00,,,0.00,VWS V14.00,2013-04-12 12:55:00,
2013-04-12 07:58:00,43.3,36.0,25.69,ENE,66,0.0,0.0,75,0.00,,,0.00,VWS V14.00,2013-04-12 12:58:00,
2013-04-12 07:59:00,43.3,36.0,25.69,ENE,66,0.0,0.0,75,0.00,,,0.00,VWS V14.00,2013-04-12 12:59:00,
2013-04-12 08:03:00,43.9,36.5,25.69,ENE,66,0.0,0.0,75,0.00,,,0.00,VWS V14.00,2013-04-12 13:03:00,
2013-04-12 08:04:00,44.1,37.0,25.69,ENE,66,0.0,0.0,76,0.00,,,0.00,VWS V14.00,2013-04-12 13:04:00,
2013-04-12 08:05:00,44.1,37.0,25.69,ENE,66,0.0,0.0,76,0.00,,,0.00,VWS V14.00,2013-04-12 13:05:00,
2013-04-12 08:08:00,44.6,37.5,25.69,ENE,66,0.0,0.0,76,0.00,,,0.00,VWS V14.00,2013-04-12 13:08:00,
2013-04-12 08:10:00,44.6,37.5,25.69,ENE,66,0.0,0.0,76,0.00,,,0.00,VWS V14.00,2013-04-12 13:10:00,
2013-04-12 08:11:00,44.8,37.7,25.69,ENE,66,0.0,0.0,76,0.00,,,0.00,VWS V14.00,2013-04-12 13:11:00,
2013-04-12 08:15:00,45.1,38.0,25.69,ENE,66,0.0,0.0,76,0.00,,,0.00,VWS V14.00,2013-04-12 13:15:00,
2013-04-12 08:16:00,45.3,38.2,25.69,ENE,66,0.0,0.0,76,0.00,,,0.00,VWS V14.00,2013-04-12 13:16:00,
2013-04-12 08:17:00,45.5,38.4,25.69,ENE,66,0.0,0.0,76,0.00,,,0.00,VWS V14.00,2013-04-12 13:17:00,
2013-04-12 08:18:00,45.5,38.4,25.69,ENE,66,0.0,0.0,76,0.00,,,0.00,VWS V14.00,2013-04-12 13:18:00,
2013-04-12 08:20:00,45.9,38.7,25.72,ENE,66,0.0,0.0,76,0.00,,,0.00,VWS V14.00,2013-04-12 13:20:00,
2013-04-12 08:21:00,45.9,38.7,25.72,ENE,66,0.0,0.0,76,0.00,,,0.00,VWS V14.00,2013-04-12 13:21:00,
2013-04-12 08:23:00,46.2,39.1,25.72,ENE,66,0.0,0.0,76,0.00,,,0.00,VWS V14.00,2013-04-12 13:23:00,
2013-04-12 08:25:00,46.4,39.3,25.72,ENE,66,0.0,0.0,76,0.00,,,0.00,VWS V14.00,2013-04-12 13:25:00,
2013-04-12 08:26:00,46.6,39.4,25.72,ENE,66,0.0,0.0,76,0.00,,,0.00,VWS V14.00,2013-04-12 13:26:00,
2013-04-12 08:28:00,46.9,39.8,25.72,ENE,66,0.0,0.0,76,0.00,,,0.00,VWS V14.00,2013-04-12 13:28:00,
2013-04-12 08:30:00,47.5,40.3,25.72,ENE,66,0.0,0.0,76,0.00,,,0.00,VWS V14.00,2013-04-12 13:30:00,
2013-04-12 08:31:00,47.7,40.5,25.72,ENE,66,0.0,0.0,76,0.00,,,0.00,VWS V14.00,2013-04-12 13:31:00,
2013-04-12 08:34:00,47.8,40.7,25.72,ENE,66,0.0,0.0,76,0.00,,,0.00,VWS V14.00,2013-04-12 13:34:00,
2013-04-12 08:37:00,48.6,41.0,25.72,ENE,66,0.0,0.0,75,0.00,,,0.00,VWS V14.00,2013-04-12 13:37:00,
2013-04-12 08:38:00,48.7,41.2,25.72,ENE,66,0.0,0.0,75,0.00,,,0.00,VWS V14.00,2013-04-12 13:38:00,
2013-04-12 08:39:00,49.5,41.9,25.72,ENE,66,0.0,0.0,75,0.00,,,0.00,VWS V14.00,2013-04-12 13:39:00,
2013-04-12 08:40:00,49.8,42.2,25.72,ENE,66,0.0,0.0,75,0.00,,,0.00,VWS V14.00,2013-04-12 13:40:00,
2013-04-12 08:42:00,51.1,43.8,25.72,ENE,66,0.0,0.0,76,0.00,,,0.00,VWS V14.00,2013-04-12 13:42:00,
2013-04-12 08:43:00,51.3,44.0,25.72,ENE,66,0.0,0.0,76,0.00,,,0.00,VWS V14.00,2013-04-12 13:43:00,
2013-04-12 08:47:00,52.2,43.8,25.72,ENE,66,0.0,0.0,73,0.00,,,0.00,VWS V14.00,2013-04-12 13:47:00,
2013-04-12 08:48:00,52.7,42.1,25.72,ENE,66,0.0,0.0,67,0.00,,,0.00,VWS V14.00,2013-04-12 13:48:00,
2013-04-12 08:49:00,52.9,38.5,25.72,ENE,66,0.0,0.0,58,0.00,,,0.00,VWS V14.00,2013-04-12 13:49:00,
2013-04-12 08:52:00,53.1,23.2,25.72,ENE,66,0.0,0.0,31,0.00,,,0.00,VWS V14.00,2013-04-12 13:52:00,
2013-04-12 08:53:00,53.4,23.6,25.72,ENE,66,0.0,0.0,31,0.00,,,0.00,VWS V14.00,2013-04-12 13:53:00,
2013-04-12 08:54:00,53.4,23.6,25.72,ENE,66,0.0,0.0,31,0.00,,,0.00,VWS V14.00,2013-04-12 13:54:00,
2013-04-12 08:57:00,54.0,25.5,25.72,ENE,66,0.0,0.0,33,0.00,,,0.00,VWS V14.00,2013-04-12 13:57:00,
2013-04-12 08:59:00,54.0,27.0,25.72,ENE,66,0.0,0.0,35,0.00,,,0.00,VWS V14.00,2013-04-12 13:59:00,
2013-04-12 09:03:00,54.3,26.6,25.72,ENE,66,0.0,0.0,34,0.00,,,0.00,VWS V14.00,2013-04-12 14:03:00,
2013-04-12 09:04:00,54.3,26.6,25.72,ENE,66,0.0,0.0,34,0.00,,,0.00,VWS V14.00,2013-04-12 14:04:00,
2013-04-12 09:05:00,54.3,26.6,25.72,ENE,66,0.0,0.0,34,0.00,,,0.00,VWS V14.00,2013-04-12 14:05:00,
2013-04-12 09:08:00,54.3,26.6,25.72,ENE,66,0.0,0.0,34,0.00,,,0.00,VWS V14.00,2013-04-12 14:08:00,
2013-04-12 09:10:00,54.3,26.6,25.72,ENE,66,0.0,0.0,34,0.00,,,0.00,VWS V14.00,2013-04-12 14:10:00,
2013-04-12 09:13:00,56.1,19.8,25.72,ENE,66,0.0,0.0,24,0.00,,,0.00,VWS V14.00,2013-04-12 14:13:00,
2013-04-12 09:15:00,56.7,21.3,25.72,ENE,66,0.0,0.0,25,0.00,,,0.00,VWS V14.00,2013-04-12 14:15:00,
2013-04-12 09:17:00,56.7,21.3,25.72,ENE,66,0.0,0.0,25,0.00,,,0.00,VWS V14.00,2013-04-12 14:17:00,
2013-04-12 09:19:00,56.7,21.3,25.72,ENE,66,0.0,0.0,25,0.00,,,0.00,VWS V14.00,2013-04-12 14:19:00,
2013-04-12 09:21:00,59.5,20.7,25.72,ENE,66,0.0,0.0,22,0.00,,,0.00,VWS V14.00,2013-04-12 14:21:00,
2013-04-12 09:22:00,56.8,16.2,25.72,ENE,67,3.6,4.5,20,0.00,,,0.00,VWS V14.00,2013-04-12 14:22:00,
2013-04-12 09:23:00,56.8,16.2,25.72,ENE,67,3.6,4.5,20,0.00,,,0.00,VWS V14.00,2013-04-12 14:23:00,
2013-04-12 09:24:00,58.8,17.9,25.72,ENE,74,3.6,4.5,20,0.00,,,0.00,VWS V14.00,2013-04-12 14:24:00,
2013-04-12 09:26:00,60.3,19.0,25.72,ENE,77,2.7,4.5,20,0.00,,,0.00,VWS V14.00,2013-04-12 14:26:00,
2013-04-12 09:28:00,59.4,18.3,25.72,SW,227,2.2,4.9,20,0.00,,,0.00,VWS V14.00,2013-04-12 14:28:00,
2013-04-12 09:29:00,60.6,19.4,25.72,SW,226,3.1,4.9,20,0.00,,,0.00,VWS V14.00,2013-04-12 14:29:00,
2013-04-12 09:31:00,61.3,18.8,25.72,SW,221,2.7,4.9,19,0.00,,,0.00,VWS V14.00,2013-04-12 14:31:00,
2013-04-12 09:33:00,61.2,18.6,25.72,South,184,2.7,4.9,19,0.00,,,0.00,VWS V14.00,2013-04-12 14:33:00,
2013-04-12 09:34:00,62.1,19.3,25.72,South,184,3.1,4.9,19,0.00,,,0.00,VWS V14.00,2013-04-12 14:34:00,
2013-04-12 09:36:00,62.2,19.5,25.72,South,184,3.6,5.4,19,0.00,,,0.00,VWS V14.00,2013-04-12 14:36:00,
2013-04-12 09:37:00,62.2,19.5,25.72,South,185,3.6,5.4,19,0.00,,,0.00,VWS V14.00,2013-04-12 14:37:00,
2013-04-12 09:38:00,63.1,20.2,25.72,South,185,0.0,5.4,19,0.00,,,0.00,VWS V14.00,2013-04-12 14:38:00,
2013-04-12 09:39:00,63.1,20.2,25.72,South,185,3.1,5.4,19,0.00,,,0.00,VWS V14.00,2013-04-12 14:39:00,
2013-04-12 09:42:00,67.3,22.4,25.72,South,185,0.0,5.4,18,0.00,,,0.00,VWS V14.00,2013-04-12 14:42:00,
2013-04-12 09:44:00,70.3,23.5,25.72,South,181,2.2,5.4,17,0.00,,,0.00,VWS V14.00,2013-04-12 14:44:00,
2013-04-12 09:48:00,69.1,23.8,25.72,SW,216,0.0,4.9,18,0.00,,,0.00,VWS V14.00,2013-04-12 14:48:00,
2013-04-12 09:49:00,69.3,24.0,25.75,SW,216,0.0,4.9,18,0.00,,,0.00,VWS V14.00,2013-04-12 14:49:00,
2013-04-12 09:50:00,69.6,24.3,25.75,SW,216,0.0,4.9,18,0.00,,,0.00,VWS V14.00,2013-04-12 14:50:00,
2013-04-12 09:54:00,73.4,24.5,25.75,SW,216,0.0,4.9,16,0.00,,,0.00,VWS V14.00,2013-04-12 14:54:00,
2013-04-12 09:55:00,74.7,25.5,25.75,SW,216,0.0,4.9,16,0.00,,,0.00,VWS V14.00,2013-04-12 14:55:00,
2013-04-12 09:56:00,74.5,25.4,25.75,SW,216,0.0,4.9,16,0.00,,,0.00,VWS V14.00,2013-04-12 14:56:00,
2013-04-12 09:59:00,78.1,28.3,25.75,SW,216,0.0,4.9,16,0.00,,,0.00,VWS V14.00,2013-04-12 14:59:00,
2013-04-12 10:01:00,78.1,28.3,25.75,South,187,2.7,2.7,16,0.00,,,0.00,VWS V14.00,2013-04-12 15:01:00,
2013-04-12 10:02:00,77.7,28.0,25.75,South,186,0.0,3.1,16,0.00,,,0.00,VWS V14.00,2013-04-12 15:02:00,
2013-04-12 10:05:00,73.9,25.0,25.75,SSW,200,0.0,4.9,16,0.00,,,0.00,VWS V14.00,2013-04-12 15:05:00,
2013-04-12 10:07:00,74.7,25.5,25.75,SSW,199,3.1,4.9,16,0.00,,,0.00,VWS V14.00,2013-04-12 15:07:00,
2013-04-12 10:08:00,75.0,25.8,25.75,SSW,199,0.0,4.9,16,0.00,,,0.00,VWS V14.00,2013-04-12 15:08:00,
2013-04-12 10:12:00,77.9,28.1,25.75,SSW,200,0.0,4.9,16,0.00,,,0.00,VWS V14.00,2013-04-12 15:12:00,
2013-04-12 10:13:00,78.3,28.4,25.75,SSW,200,0.0,4.9,16,0.00,,,0.00,VWS V14.00,2013-04-12 15:13:00,
2013-04-12 10:18:00,79.0,27.4,25.75,SSW,200,0.0,2.2,15,0.00,,,0.00,VWS V14.00,2013-04-12 15:18:00,
2013-04-12 10:23:00,75.7,26.4,25.75,SSW,194,3.1,6.3,16,0.00,,,0.00,VWS V14.00,2013-04-12 15:23:00,
2013-04-12 10:24:00,77.0,27.4,25.75,SSW,194,0.0,6.3,16,0.00,,,0.00,VWS V14.00,2013-04-12 15:24:00,
2013-04-12 10:28:00,74.1,25.1,25.75,SSW,193,3.1,6.3,16,0.00,,,0.00,VWS V14.00,2013-04-12 15:28:00,
2013-04-12 10:30:00,72.9,25.5,25.75,SSW,193,2.2,6.3,17,0.00,,,0.00,VWS V14.00,2013-04-12 15:30:00,
2013-04-12 10:33:00,75.9,26.5,25.75,SW,222,2.2,4.9,16,0.00,,,0.00,VWS V14.00,2013-04-12 15:33:00,
2013-04-12 10:35:00,73.4,24.5,25.78,SSW,196,5.4,6.3,16,0.00,,,0.00,VWS V14.00,2013-04-12 15:35:00,
2013-04-12 10:38:00,72.5,25.2,25.78,SSW,204,2.7,6.3,17,0.00,,,0.00,VWS V14.00,2013-04-12 15:38:00,
2013-04-12 10:40:00,71.1,24.1,25.78,SSW,205,4.0,6.3,17,0.00,,,0.00,VWS V14.00,2013-04-12 15:40:00,
2013-04-12 10:41:00,70.9,23.9,25.78,South,179,8.3,8.3,17,0.00,,,0.00,VWS V14.00,2013-04-12 15:41:00,
2013-04-12 10:42:00,72.7,25.4,25.78,SSW,203,3.6,8.3,17,0.00,,,0.00,VWS V14.00,2013-04-12 15:42:00,
2013-04-12 10:44:00,73.4,24.5,25.78,SSW,202,0.0,8.3,16,0.00,,,0.00,VWS V14.00,2013-04-12 15:44:00,
2013-04-12 10:45:00,72.1,25.0,25.78,SW,222,4.0,6.3,17,0.00,,,0.00,VWS V14.00,2013-04-12 15:45:00,
2013-04-12 10:46:00,72.1,25.0,25.78,SW,222,4.0,6.3,17,0.00,,,0.00,VWS V14.00,2013-04-12 15:46:00,
2013-04-12 10:48:00,72.0,24.8,25.78,SSW,194,5.4,7.2,17,0.00,,,0.00,VWS V14.00,2013-04-12 15:48:00,
2013-04-12 10:49:00,72.0,24.8,25.81,SSW,199,0.0,7.2,17,0.00,,,0.00,VWS V14.00,2013-04-12 15:49:00,
2013-04-12 10:51:00,75.9,26.5,25.81,SSW,199,0.0,7.2,16,0.00,,,0.00,VWS V14.00,2013-04-12 15:51:00,
2013-04-12 10:54:00,80.8,28.9,25.81,SSW,199,0.0,7.2,15,0.00,,,0.00,VWS V14.00,2013-04-12 15:54:00,
2013-04-12 10:55:00,81.5,29.4,25.81,SSW,199,0.0,7.2,15,0.00,,,0.00,VWS V14.00,2013-04-12 15:55:00,
2013-04-12 10:57:00,82.6,28.6,25.81,South,188,5.8,8.3,14,0.00,,,0.00,VWS V14.00,2013-04-12 15:57:00,
2013-04-12 10:59:00,77.4,27.7,25.81,South,172,5.8,8.3,16,0.00,,,0.00,VWS V14.00,2013-04-12 15:59:00,
2013-04-12 11:01:00,80.1,28.3,25.81,South,176,4.0,4.0,15,0.00,,,0.00,VWS V14.00,2013-04-12 16:01:00,
2013-04-12 11:02:00,81.1,29.1,25.81,South,176,0.0,4.0,15,0.00,,,0.00,VWS V14.00,2013-04-12 16:02:00,
2013-04-12 11:03:00,81.0,29.0,25.81,South,176,0.0,4.0,15,0.00,,,0.00,VWS V14.00,2013-04-12 16:03:00,
2013-04-12 11:05:00,80.8,28.9,25.81,SSW,199,3.6,4.0,15,0.00,,,0.00,VWS V14.00,2013-04-12 16:05:00,
2013-04-12 11:08:00,79.2,27.6,25.81,SSW,200,4.0,8.1,15,0.00,,,0.00,VWS V14.00,2013-04-12 16:08:00,
2013-04-12 11:10:00,80.8,28.9,25.81,South,189,2.2,8.1,15,0.00,,,0.00,VWS V14.00,2013-04-12 16:10:00,
2013-04-12 11:13:00,79.2,27.6,25.81,SW,227,2.7,8.3,15,0.00,,,0.00,VWS V14.00,2013-04-12 16:13:00,
2013-04-12 11:14:00,79.7,28.0,25.81,SW,227,0.0,8.3,15,0.00,,,0.00,VWS V14.00,2013-04-12 16:14:00,
2013-04-12 11:16:00,83.5,29.3,25.81,SSW,192,0.0,3.1,14,0.00,,,0.00,VWS V14.00,2013-04-12 16:16:00,
2013-04-12 11:18:00,80.6,28.7,25.81,South,184,4.0,6.3,15,0.00,,,0.00,VWS V14.00,2013-04-12 16:18:00,
2013-04-12 11:19:00,79.5,27.9,25.84,South,184,4.0,6.3,15,0.00,,,0.00,VWS V14.00,2013-04-12 16:19:00,
2013-04-12 11:21:00,79.2,27.6,25.84,South,184,4.0,6.3,15,0.00,,,0.00,VWS V14.00,2013-04-12 16:21:00,
2013-04-12 11:23:00,81.5,29.4,25.84,South,184,4.0,6.3,15,0.00,,,0.00,VWS V14.00,2013-04-12 16:23:00,
2013-04-12 11:24:00,83.3,29.2,25.84,South,178,2.7,6.3,14,0.00,,,0.00,VWS V14.00,2013-04-12 16:24:00,
2013-04-12 11:26:00,83.5,29.3,25.84,South,178,3.6,6.3,14,0.00,,,0.00,VWS V14.00,2013-04-12 16:26:00,
2013-04-12 11:27:00,81.7,29.6,25.84,SSW,195,5.4,6.3,15,0.00,,,0.00,VWS V14.00,2013-04-12 16:27:00,
2013-04-12 11:29:00,81.5,29.4,25.84,SSW,192,5.4,6.3,15,0.00,,,0.00,VWS V14.00,2013-04-12 16:29:00,
2013-04-12 11:30:00,81.9,29.7,25.84,SSW,192,5.4,6.3,15,0.00,,,0.00,VWS V14.00,2013-04-12 16:30:00,
2013-04-12 11:33:00,81.5,29.4,25.84,South,181,5.4,5.4,15,0.00,,,0.00,VWS V14.00,2013-04-12 16:33:00,
2013-04-12 11:34:00,81.1,29.1,25.87,South,181,5.4,5.4,15,0.00,,,0.00,VWS V14.00,2013-04-12 16:34:00,
2013-04-12 11:35:00,79.2,27.6,25.87,South,181,5.4,5.4,15,0.00,,,0.00,VWS V14.00,2013-04-12 16:35:00,
2013-04-12 11:38:00,79.0,27.4,25.87,South,181,5.4,5.4,15,0.00,,,0.00,VWS V14.00,2013-04-12 16:38:00,
2013-04-12 11:39:00,77.4,27.7,25.87,SSW,203,0.0,8.3,16,0.00,,,0.00,VWS V14.00,2013-04-12 16:39:00,
2013-04-12 11:40:00,76.5,27.0,25.87,SSW,211,4.9,8.3,16,0.00,,,0.00,VWS V14.00,2013-04-12 16:40:00,
2013-04-12 11:41:00,78.1,28.3,25.87,SSW,198,2.7,8.3,16,0.00,,,0.00,VWS V14.00,2013-04-12 16:41:00,
2013-04-12 11:43:00,81.3,29.3,25.87,SSW,202,0.0,8.3,15,0.00,,,0.00,VWS V14.00,2013-04-12 16:43:00,
2013-04-12 11:44:00,81.3,29.3,25.87,SSE,167,3.6,8.3,15,0.00,,,0.00,VWS V14.00,2013-04-12 16:44:00,
2013-04-12 11:45:00,81.3,29.3,25.87,SSE,147,4.0,8.3,15,0.00,,,0.00,VWS V14.00,2013-04-12 16:45:00,
2013-04-12 11:48:00,80.4,28.6,25.87,South,179,2.7,4.0,15,0.00,,,0.00,VWS V14.00,2013-04-12 16:48:00,
2013-04-12 11:50:00,82.8,28.8,25.90,SSE,147,8.3,8.3,14,0.00,,,0.00,VWS V14.00,2013-04-12 16:50:00,
2013-04-12 11:55:00,80.8,28.9,25.90,South,180,3.1,8.3,15,0.00,,,0.00,VWS V14.00,2013-04-12 16:55:00,
2013-04-12 11:56:00,80.1,28.3,25.90,South,189,6.3,8.3,15,0.00,,,0.00,VWS V14.00,2013-04-12 16:56:00,
2013-04-12 11:57:00,79.9,28.1,25.90,South,172,4.9,8.3,15,0.00,,,0.00,VWS V14.00,2013-04-12 16:57:00,
2013-04-12 12:00:00,81.3,29.3,25.90,SSE,160,3.6,5.4,15,0.00,,,0.00,VWS V14.00,2013-04-12 17:00:00,
2013-04-12 12:01:00,82.2,30.0,25.90,South,181,2.7,5.4,15,0.00,,,0.00,VWS V14.00,2013-04-12 17:01:00,
2013-04-12 12:02:00,82.4,28.5,25.90,South,180,2.2,5.4,14,0.00,,,0.00,VWS V14.00,2013-04-12 17:02:00,
2013-04-12 12:06:00,82.9,28.9,25.90,SSW,196,3.1,7.6,14,0.00,,,0.00,VWS V14.00,2013-04-12 17:06:00,
2013-04-12 12:07:00,82.9,28.9,25.90,South,179,0.0,7.6,14,0.00,,,0.00,VWS V14.00,2013-04-12 17:07:00,
2013-04-12 12:08:00,84.0,29.8,25.90,South,177,4.0,7.6,14,0.00,,,0.00,VWS V14.00,2013-04-12 17:08:00,
2013-04-12 12:11:00,82.6,28.6,25.90,South,175,5.4,7.6,14,0.00,,,0.00,VWS V14.00,2013-04-12 17:11:00,
2013-04-12 12:12:00,82.8,28.8,25.90,South,174,7.6,7.6,14,0.00,,,0.00,VWS V14.00,2013-04-12 17:12:00,
2013-04-12 12:13:00,78.3,28.4,25.90,South,186,8.3,8.7,16,0.00,,,0.00,VWS V14.00,2013-04-12 17:13:00,
2013-04-12 12:18:00,80.6,28.7,25.90,SSE,158,3.1,6.7,15,0.00,,,0.00,VWS V14.00,2013-04-12 17:18:00,
2013-04-12 12:23:00,85.3,30.7,25.93,SE,146,4.0,8.7,14,0.00,,,0.00,VWS V14.00,2013-04-12 17:23:00,
2013-04-12 12:24:00,84.4,30.0,25.93,South,171,5.4,8.7,14,0.00,,,0.00,VWS V14.00,2013-04-12 17:24:00,
2013-04-12 12:29:00,83.1,29.0,25.93,South,185,6.3,8.7,14,0.00,,,0.00,VWS V14.00,2013-04-12 17:29:00,
2013-04-12 12:30:00,81.1,29.1,25.93,South,175,8.1,12.8,15,0.00,,,0.00,VWS V14.00,2013-04-12 17:30:00,
2013-04-12 12:34:00,81.3,29.3,25.93,SW,224,4.9,10.1,15,0.00,,,0.00,VWS V14.00,2013-04-12 17:34:00,
2013-04-12 12:35:00,81.3,29.3,25.93,SSW,202,4.0,10.1,15,0.00,,,0.00,VWS V14.00,2013-04-12 17:35:00,
2013-04-12 12:39:00,77.5,27.9,25.93,South,176,8.1,11.0,16,0.00,,,0.00,VWS V14.00,2013-04-12 17:39:00,
2013-04-12 12:40:00,77.5,27.9,25.93,South,180,4.0,11.0,16,0.00,,,0.00,VWS V14.00,2013-04-12 17:40:00,
2013-04-12 12:41:00,79.3,27.7,25.93,South,180,3.1,11.0,15,0.00,,,0.00,VWS V14.00,2013-04-12 17:41:00,
2013-04-12 12:45:00,81.7,29.6,25.93,SSW,206,0.0,11.0,15,0.00,,,0.00,VWS V14.00,2013-04-12 17:45:00,
2013-04-12 12:47:00,82.6,28.6,25.93,South,182,6.3,7.6,14,0.00,,,0.00,VWS V14.00,2013-04-12 17:47:00,
2013-04-12 12:50:00,83.5,29.3,25.93,South,183,4.0,7.6,14,0.00,,,0.00,VWS V14.00,2013-04-12 17:50:00,
2013-04-12 12:52:00,84.6,30.2,25.93,SSE,160,5.4,8.1,14,0.00,,,0.00,VWS V14.00,2013-04-12 17:52:00,
2013-04-12 12:55:00,82.2,30.0,25.93,ESE,113,4.0,8.1,15,0.00,,,0.00,VWS V14.00,2013-04-12 17:55:00,
2013-04-12 12:57:00,82.4,28.5,25.93,SSE,158,5.8,8.1,14,0.00,,,0.00,VWS V14.00,2013-04-12 17:57:00,
2013-04-12 13:01:00,83.5,29.3,25.93,SE,138,0.0,6.3,14,0.00,,,0.00,VWS V14.00,2013-04-12 18:01:00,
2013-04-12 13:02:00,84.4,30.0,25.93,SE,138,0.0,6.3,14,0.00,,,0.00,VWS V14.00,2013-04-12 18:02:00,
2013-04-12 13:08:00,82.9,28.9,25.96,SSE,158,5.8,6.3,14,0.00,,,0.00,VWS V14.00,2013-04-12 18:08:00,
2013-04-12 13:13:00,80.1,28.3,25.96,South,189,3.6,6.3,15,0.00,,,0.00,VWS V14.00,2013-04-12 18:13:00,
2013-04-12 13:14:00,80.8,28.9,25.96,South,177,0.0,6.3,15,0.00,,,0.00,VWS V14.00,2013-04-12 18:14:00,
2013-04-12 13:20:00,78.4,28.6,25.96,South,178,6.3,10.5,16,0.00,,,0.00,VWS V14.00,2013-04-12 18:20:00,
2013-04-12 13:25:00,78.4,28.6,25.96,South,190,5.8,10.5,16,0.00,,,0.00,VWS V14.00,2013-04-12 18:25:00,
2013-04-12 14:26:00,82.4,28.5,25.99,South,171,4.9,11.0,14,0.00,,,0.00,VWS V14.00,2013-04-12 19:26:00,
2013-04-12 14:27:00,82.4,28.5,25.99,South,178,7.6,11.0,14,0.00,,,0.00,VWS V14.00,2013-04-12 19:27:00,
2013-04-12 14:31:00,85.5,30.9,25.99,South,178,2.7,2.7,14,0.00,,,0.00,VWS V14.00,2013-04-12 19:31:00,
2013-04-12 14:32:00,85.8,31.2,25.99,South,186,5.4,5.4,14,0.00,,,0.00,VWS V14.00,2013-04-12 19:32:00,
2013-04-12 14:37:00,86.7,31.9,25.99,SE,133,3.6,5.8,14,0.00,,,0.00,VWS V14.00,2013-04-12 19:37:00,
2013-04-12 14:38:00,86.7,31.9,25.99,SSW,196,2.7,5.8,14,0.00,,,0.00,VWS V14.00,2013-04-12 19:38:00,
2013-04-12 14:43:00,84.9,30.5,25.99,SSW,203,8.7,8.7,14,0.00,,,0.00,VWS V14.00,2013-04-12 19:43:00,
2013-04-12 14:44:00,84.9,30.5,25.99,South,177,9.2,10.5,14,0.00,,,0.00,VWS V14.00,2013-04-12 19:44:00,
2013-04-12 14:47:00,84.2,29.9,25.99,SSE,162,2.2,6.3,14,0.00,,,0.00,VWS V14.00,2013-04-12 19:47:00,
2013-04-12 14:48:00,84.6,30.2,25.99,South,179,5.8,6.3,14,0.00,,,0.00,VWS V14.00,2013-04-12 19:48:00,
2013-04-12 14:49:00,84.9,30.5,25.99,SSE,161,6.3,6.3,14,0.00,,,0.00,VWS V14.00,2013-04-12 19:49:00,
2013-04-12 14:53:00,87.1,32.2,25.99,ESE,118,0.0,6.3,14,0.00,,,0.00,VWS V14.00,2013-04-12 19:53:00,
2013-04-12 14:54:00,87.1,32.2,25.99,SE,145,11.4,11.4,14,0.00,,,0.00,VWS V14.00,2013-04-12 19:54:00,
2013-04-12 14:56:00,85.1,30.6,25.99,SSW,202,5.8,11.4,14,0.00,,,0.00,VWS V14.00,2013-04-12 19:56:00,
2013-04-12 14:58:00,84.7,30.3,25.99,SE,129,0.0,11.4,14,0.00,,,0.00,VWS V14.00,2013-04-12 19:58:00,
2013-04-12 14:59:00,84.7,30.3,25.99,SE,129,0.0,11.4,14,0.00,,,0.00,VWS V14.00,2013-04-12 19:59:00,
2013-04-12 15:02:00,84.0,29.8,25.99,South,175,0.0,5.4,14,0.00,,,0.00,VWS V14.00,2013-04-12 20:02:00,
2013-04-12 15:03:00,84.4,30.0,25.99,South,184,7.6,7.6,14,0.00,,,0.00,VWS V14.00,2013-04-12 20:03:00,
2013-04-12 15:04:00,85.6,31.0,25.99,SW,228,2.2,7.6,14,0.00,,,0.00,VWS V14.00,2013-04-12 20:04:00,
2013-04-12 15:05:00,85.6,31.0,25.99,SW,228,2.2,7.6,14,0.00,,,0.00,VWS V14.00,2013-04-12 20:05:00,
2013-04-12 15:07:00,85.6,31.0,25.99,SSE,164,0.0,7.6,14,0.00,,,0.00,VWS V14.00,2013-04-12 20:07:00,
2013-04-12 15:08:00,86.5,31.7,25.99,ENE,72,0.0,7.6,14,0.00,,,0.00,VWS V14.00,2013-04-12 20:08:00,
2013-04-12 15:10:00,88.2,31.2,25.99,SE,136,0.0,7.6,13,0.00,,,0.00,VWS V14.00,2013-04-12 20:10:00,
2013-04-12 15:12:00,88.2,31.2,25.99,ESE,104,0.0,7.6,13,0.00,,,0.00,VWS V14.00,2013-04-12 20:12:00,
2013-04-12 15:14:00,85.1,30.6,25.99,SSE,165,5.4,7.6,14,0.00,,,0.00,VWS V14.00,2013-04-12 20:14:00,
2013-04-12 15:15:00,84.2,29.9,25.99,South,183,4.0,6.3,14,0.00,,,0.00,VWS V14.00,2013-04-12 20:15:00,
2013-04-12 15:17:00,84.4,30.0,25.99,South,178,0.0,8.3,14,0.00,,,0.00,VWS V14.00,2013-04-12 20:17:00,
2013-04-12 15:19:00,83.7,29.5,25.99,SSE,168,8.7,11.0,14,0.00,,,0.00,VWS V14.00,2013-04-12 20:19:00,
2013-04-12 15:21:00,84.7,30.3,25.99,SSE,152,2.2,11.0,14,0.00,,,0.00,VWS V14.00,2013-04-12 20:21:00,
2013-04-12 15:22:00,85.1,30.6,25.99,South,174,0.0,11.0,14,0.00,,,0.00,VWS V14.00,2013-04-12 20:22:00,
2013-04-12 15:23:00,86.0,31.3,25.99,SSE,159,4.9,11.0,14,0.00,,,0.00,VWS V14.00,2013-04-12 20:23:00,
2013-04-12 15:25:00,85.8,31.2,25.99,South,170,3.6,11.0,14,0.00,,,0.00,VWS V14.00,2013-04-12 20:25:00,
2013-04-12 15:27:00,86.5,31.7,25.99,SSE,154,5.4,11.0,14,0.00,,,0.00,VWS V14.00,2013-04-12 20:27:00,
2013-04-12 15:28:00,87.1,32.2,25.99,NE,53,0.0,11.0,14,0.00,,,0.00,VWS V14.00,2013-04-12 20:28:00,
2013-04-12 15:30:00,87.8,30.9,25.99,SSW,194,0.0,5.4,13,0.00,,,0.00,VWS V14.00,2013-04-12 20:30:00,
2013-04-12 15:32:00,86.7,31.9,25.99,South,180,7.6,8.7,14,0.00,,,0.00,VWS V14.00,2013-04-12 20:32:00,
2013-04-12 15:33:00,82.4,28.5,25.99,SSW,205,10.5,10.5,14,0.00,,,0.00,VWS V14.00,2013-04-12 20:33:00,
2013-04-12 15:34:00,82.8,28.8,25.96,South,181,8.7,10.5,14,0.00,,,0.00,VWS V14.00,2013-04-12 20:34:00,
2013-04-12 15:36:00,84.6,30.2,25.96,SW,223,7.6,10.5,14,0.00,,,0.00,VWS V14.00,2013-04-12 20:36:00,
2013-04-12 15:37:00,84.7,30.3,25.96,SSW,192,3.1,10.5,14,0.00,,,0.00,VWS V14.00,2013-04-12 20:37:00,
2013-04-12 15:39:00,85.1,30.6,25.96,South,184,9.2,10.5,14,0.00,,,0.00,VWS V14.00,2013-04-12 20:39:00,
2013-04-12 15:42:00,85.3,30.7,25.96,South,170,12.8,12.8,14,0.00,,,0.00,VWS V14.00,2013-04-12 20:42:00,
2013-04-12 15:44:00,86.7,31.9,25.96,South,181,3.6,12.8,14,0.00,,,0.00,VWS V14.00,2013-04-12 20:44:00,
2013-04-12 15:45:00,87.8,30.9,25.96,South,181,0.0,3.1,13,0.00,,,0.00,VWS V14.00,2013-04-12 20:45:00,
2013-04-12 15:47:00,88.3,31.3,25.96,South,185,0.0,3.6,13,0.00,,,0.00,VWS V14.00,2013-04-12 20:47:00,
2013-04-12 15:49:00,89.2,32.0,25.96,SSW,197,4.5,4.5,13,0.00,,,0.00,VWS V14.00,2013-04-12 20:49:00,
2013-04-12 15:50:00,89.2,32.0,25.96,SSW,192,6.3,6.3,13,0.00,,,0.00,VWS V14.00,2013-04-12 20:50:00,
2013-04-12 15:51:00,89.2,32.0,25.96,SSE,163,4.9,6.3,13,0.00,,,0.00,VWS V14.00,2013-04-12 20:51:00,
2013-04-12 15:53:00,88.2,31.2,25.96,SSE,150,4.0,8.1,13,0.00,,,0.00,VWS V14.00,2013-04-12 20:53:00,
2013-04-12 15:54:00,87.6,32.6,25.96,South,189,2.2,8.1,14,0.00,,,0.00,VWS V14.00,2013-04-12 20:54:00,
2013-04-12 15:55:00,87.6,32.6,25.96,SSE,163,3.6,8.1,14,0.00,,,0.00,VWS V14.00,2013-04-12 20:55:00,
2013-04-12 15:58:00,87.1,32.2,25.96,SSE,168,0.0,8.1,14,0.00,,,0.00,VWS V14.00,2013-04-12 20:58:00,
2013-04-12 15:59:00,88.0,31.0,25.96,South,178,5.8,8.1,13,0.00,,,0.00,VWS V14.00,2013-04-12 20:59:00,
2013-04-12 16:00:00,88.3,31.3,25.96,SSE,165,0.0,8.1,13,0.00,,,0.00,VWS V14.00,2013-04-12 21:00:00,
2013-04-12 16:02:00,88.3,31.3,25.96,SSE,148,3.6,3.6,13,0.00,,,0.00,VWS V14.00,2013-04-12 21:02:00,
2013-04-12 16:03:00,89.8,32.4,25.96,ESE,111,0.0,3.6,13,0.00,,,0.00,VWS V14.00,2013-04-12 21:03:00,
2013-04-12 16:04:00,88.9,31.7,25.96,South,180,4.9,4.9,13,0.00,,,0.00,VWS V14.00,2013-04-12 21:04:00,
2013-04-12 16:05:00,89.6,32.3,25.96,South,173,3.1,4.9,13,0.00,,,0.00,VWS V14.00,2013-04-12 21:05:00,
2013-04-12 16:07:00,88.9,31.7,25.96,South,172,5.8,5.8,13,0.00,,,0.00,VWS V14.00,2013-04-12 21:07:00,
2013-04-12 16:08:00,87.8,30.9,25.96,SSW,201,0.0,5.8,13,0.00,,,0.00,VWS V14.00,2013-04-12 21:08:00,
2013-04-12 16:11:00,88.9,31.7,25.96,SSW,205,5.4,6.3,13,0.00,,,0.00,VWS V14.00,2013-04-12 21:11:00,
2013-04-12 16:13:00,89.2,32.0,25.96,South,173,5.4,7.6,13,0.00,,,0.00,VWS V14.00,2013-04-12 21:13:00,
2013-04-12 16:14:00,89.2,32.0,25.96,SSW,210,3.1,7.6,13,0.00,,,0.00,VWS V14.00,2013-04-12 21:14:00,
2013-04-12 16:18:00,88.9,31.7,25.96,ENE,61,0.0,5.8,13,0.00,,,0.00,VWS V14.00,2013-04-12 21:18:00,
2013-04-12 16:19:00,88.9,31.7,25.96,South,174,5.8,5.8,13,0.00,,,0.00,VWS V14.00,2013-04-12 21:19:00,
2013-04-12 16:23:00,90.1,32.7,25.96,SSE,166,0.0,8.1,13,0.00,,,0.00,VWS V14.00,2013-04-12 21:23:00,
2013-04-12 16:24:00,90.1,32.7,25.96,South,182,4.9,8.1,13,0.00,,,0.00,VWS V14.00,2013-04-12 21:24:00,
2013-04-12 16:29:00,89.6,32.3,25.96,ESE,118,0.0,8.1,13,0.00,,,0.00,VWS V14.00,2013-04-12 21:29:00,
2013-04-12 16:30:00,89.8,32.4,25.96,South,179,7.6,8.1,13,0.00,,,0.00,VWS V14.00,2013-04-12 21:30:00,
2013-04-12 16:34:00,90.5,33.0,25.96,SSE,163,2.7,6.3,13,0.00,,,0.00,VWS V14.00,2013-04-12 21:34:00,
2013-04-12 16:35:00,90.5,33.0,25.96,ESE,123,0.0,6.3,13,0.00,,,0.00,VWS V14.00,2013-04-12 21:35:00,
2013-04-12 16:37:00,90.7,33.1,25.96,SSE,162,4.9,6.3,13,0.00,,,0.00,VWS V14.00,2013-04-12 21:37:00,
2013-04-12 16:39:00,87.8,30.9,25.96,South,181,5.4,8.1,13,0.00,,,0.00,VWS V14.00,2013-04-12 21:39:00,
2013-04-12 16:40:00,87.8,30.9,25.96,SSW,203,3.6,8.1,13,0.00,,,0.00,VWS V14.00,2013-04-12 21:40:00,
2013-04-12 16:43:00,88.3,31.3,25.96,SSW,195,5.8,9.2,13,0.00,,,0.00,VWS V14.00,2013-04-12 21:43:00,
2013-04-12 16:45:00,88.5,31.5,25.96,South,173,4.9,8.7,13,0.00,,,0.00,VWS V14.00,2013-04-12 21:45:00,
2013-04-12 16:46:00,88.5,31.5,25.96,SSW,213,5.4,8.7,13,0.00,,,0.00,VWS V14.00,2013-04-12 21:46:00,
2013-04-12 16:49:00,85.6,31.0,25.96,SSW,206,7.6,9.6,14,0.00,,,0.00,VWS V14.00,2013-04-12 21:49:00,
2013-04-12 16:50:00,84.7,30.3,25.96,South,178,6.3,9.6,14,0.00,,,0.00,VWS V14.00,2013-04-12 21:50:00,
2013-04-12 16:51:00,84.7,30.3,25.96,South,180,5.4,9.6,14,0.00,,,0.00,VWS V14.00,2013-04-12 21:51:00,
2013-04-12 16:54:00,87.3,32.3,25.96,SSE,153,0.0,9.6,14,0.00,,,0.00,VWS V14.00,2013-04-12 21:54:00,
2013-04-12 16:56:00,87.4,32.4,25.96,SSW,197,7.6,9.6,14,0.00,,,0.00,VWS V14.00,2013-04-12 21:56:00,
2013-04-12 16:57:00,87.4,32.4,25.96,South,177,8.1,9.6,14,0.00,,,0.00,VWS V14.00,2013-04-12 21:57:00,
2013-04-12 16:58:00,87.1,32.2,25.96,SSE,154,3.1,9.6,14,0.00,,,0.00,VWS V14.00,2013-04-12 21:58:00,
2013-04-12 16:59:00,87.1,32.2,25.96,SSE,168,11.0,11.0,14,0.00,,,0.00,VWS V14.00,2013-04-12 21:59:00,
2013-04-12 17:02:00,87.1,32.2,25.96,SSE,156,2.7,11.0,14,0.00,,,0.00,VWS V14.00,2013-04-12 22:02:00,
2013-04-12 17:03:00,86.5,31.7,25.96,South,183,7.6,11.0,14,0.00,,,0.00,VWS V14.00,2013-04-12 22:03:00,
2013-04-12 17:04:00,86.5,31.7,25.96,South,174,5.8,11.0,14,0.00,,,0.00,VWS V14.00,2013-04-12 22:04:00,
2013-04-12 17:07:00,88.5,31.5,25.96,South,179,2.2,11.0,13,0.00,,,0.00,VWS V14.00,2013-04-12 22:07:00,
2013-04-12 17:08:00,88.3,31.3,25.96,South,185,2.2,11.0,13,0.00,,,0.00,VWS V14.00,2013-04-12 22:08:00,
2013-04-12 17:10:00,87.4,32.4,25.96,South,186,5.4,11.0,14,0.00,,,0.00,VWS V14.00,2013-04-12 22:10:00,
2013-04-12 17:13:00,85.8,31.2,25.96,SW,219,5.4,11.4,14,0.00,,,0.00,VWS V14.00,2013-04-12 22:13:00,
2013-04-12 17:15:00,85.3,30.7,25.96,South,170,3.6,6.3,14,0.00,,,0.00,VWS V14.00,2013-04-12 22:15:00,
2013-04-12 17:18:00,85.8,31.2,25.96,South,180,3.1,8.3,14,0.00,,,0.00,VWS V14.00,2013-04-12 22:18:00,
2013-04-12 17:19:00,85.8,31.2,25.96,SSE,159,6.3,8.3,14,0.00,,,0.00,VWS V14.00,2013-04-12 22:19:00,
2013-04-12 17:20:00,86.2,31.5,25.96,SSW,194,8.7,8.7,14,0.00,,,0.00,VWS V14.00,2013-04-12 22:20:00,
2013-04-12 17:23:00,85.3,30.7,25.96,South,171,4.0,10.5,14,0.00,,,0.00,VWS V14.00,2013-04-12 22:23:00,
2013-04-12 17:24:00,85.3,30.7,25.96,South,178,6.3,10.5,14,0.00,,,0.00,VWS V14.00,2013-04-12 22:24:00,
2013-04-12 17:25:00,85.6,31.0,25.96,SSE,166,2.7,10.5,14,0.00,,,0.00,VWS V14.00,2013-04-12 22:25:00,
2013-04-12 17:28:00,87.1,32.2,25.96,South,180,3.6,10.5,14,0.00,,,0.00,VWS V14.00,2013-04-12 22:28:00,
2013-04-12 17:29:00,86.0,31.3,25.96,South,174,7.6,10.5,14,0.00,,,0.00,VWS V14.00,2013-04-12 22:29:00,
2013-04-12 17:31:00,86.9,32.0,25.96,SE,137,3.1,5.4,14,0.00,,,0.00,VWS V14.00,2013-04-12 22:31:00,
2013-04-12 17:34:00,88.0,31.0,25.96,South,175,0.0,5.4,13,0.00,,,0.00,VWS V14.00,2013-04-12 22:34:00,
2013-04-12 17:36:00,88.2,31.2,25.96,South,170,4.0,6.3,13,0.00,,,0.00,VWS V14.00,2013-04-12 22:36:00,
2013-04-12 17:37:00,88.7,31.6,25.96,SE,138,2.7,6.3,13,0.00,,,0.00,VWS V14.00,2013-04-12 22:37:00,
2013-04-12 17:39:00,87.8,30.9,25.96,SSE,160,3.6,6.3,13,0.00,,,0.00,VWS V14.00,2013-04-12 22:39:00,
2013-04-12 17:41:00,87.1,32.2,25.96,South,177,5.8,8.7,14,0.00,,,0.00,VWS V14.00,2013-04-12 22:41:00,
2013-04-12 17:42:00,85.5,30.9,25.96,South,180,3.1,8.7,14,0.00,,,0.00,VWS V14.00,2013-04-12 22:42:00,
2013-04-12 17:44:00,86.0,31.3,25.96,SSE,166,0.0,8.7,14,0.00,,,0.00,VWS V14.00,2013-04-12 22:44:00,
2013-04-12 17:47:00,85.6,31.0,25.96,SE,134,2.7,8.7,14,0.00,,,0.00,VWS V14.00,2013-04-12 22:47:00,
2013-04-12 17:50:00,85.8,31.2,25.96,SSE,166,0.0,8.7,14,0.00,,,0.00,VWS V14.00,2013-04-12 22:50:00,
2013-04-12 17:52:00,85.6,31.0,25.96,SSE,149,0.0,8.7,14,0.00,,,0.00,VWS V14.00,2013-04-12 22:52:00,
2013-04-12 17:53:00,86.4,31.6,25.96,SSE,149,0.0,8.7,14,0.00,,,0.00,VWS V14.00,2013-04-12 22:53:00,
2013-04-12 17:56:00,85.3,30.7,25.96,East,92,0.0,8.7,14,0.00,,,0.00,VWS V14.00,2013-04-12 22:56:00,
2013-04-12 17:58:00,85.8,31.2,25.96,South,169,0.0,8.7,14,0.00,,,0.00,VWS V14.00,2013-04-12 22:58:00,
2013-04-12 17:59:00,85.5,30.9,25.96,SSE,153,3.1,8.7,14,0.00,,,0.00,VWS V14.00,2013-04-12 22:59:00,
2013-04-12 18:02:00,86.4,31.6,25.96,SSW,200,2.2,8.7,14,0.00,,,0.00,VWS V14.00,2013-04-12 23:02:00,
2013-04-12 18:04:00,84.6,30.2,25.96,South,188,8.7,8.7,14,0.00,,,0.00,VWS V14.00,2013-04-12 23:04:00,
2013-04-12 18:05:00,84.7,30.3,25.96,South,188,6.7,8.7,14,0.00,,,0.00,VWS V14.00,2013-04-12 23:05:00,
2013-04-12 18:07:00,84.7,30.3,25.96,South,188,2.7,8.7,14,0.00,,,0.00,VWS V14.00,2013-04-12 23:07:00,
2013-04-12 18:09:00,85.3,30.7,25.96,South,183,0.0,8.7,14,0.00,,,0.00,VWS V14.00,2013-04-12 23:09:00,
2013-04-12 18:10:00,85.3,30.7,25.96,SE,135,0.0,8.7,14,0.00,,,0.00,VWS V14.00,2013-04-12 23:10:00,
2013-04-12 18:12:00,84.6,30.2,25.96,SSE,156,2.2,8.7,14,0.00,,,0.00,VWS V14.00,2013-04-12 23:12:00,
2013-04-12 18:13:00,84.6,30.2,25.96,SSE,156,4.9,8.7,14,0.00,,,0.00,VWS V14.00,2013-04-12 23:13:00,
2013-04-12 18:15:00,82.9,28.9,25.96,South,179,4.9,8.7,14,0.00,,,0.00,VWS V14.00,2013-04-12 23:15:00,
2013-04-12 18:17:00,82.9,28.9,25.96,South,185,2.7,6.3,14,0.00,,,0.00,VWS V14.00,2013-04-12 23:17:00,
2013-04-12 18:19:00,82.9,28.9,25.96,South,178,0.0,6.3,14,0.00,,,0.00,VWS V14.00,2013-04-12 23:19:00,
2013-04-12 18:20:00,82.9,28.9,25.96,SSE,167,0.0,6.3,14,0.00,,,0.00,VWS V14.00,2013-04-12 23:20:00,
2013-04-12 18:21:00,82.9,28.9,25.96,South,181,2.2,6.3,14,0.00,,,0.00,VWS V14.00,2013-04-12 23:21:00,
2013-04-12 18:23:00,82.4,28.5,25.96,SE,130,3.6,7.2,14,0.00,,,0.00,VWS V14.00,2013-04-12 23:23:00,
2013-04-12 18:24:00,82.0,29.9,25.96,SSE,168,2.7,7.2,15,0.00,,,0.00,VWS V14.00,2013-04-12 23:24:00,
2013-04-12 18:25:00,82.0,29.9,25.96,South,172,2.2,7.2,15,0.00,,,0.00,VWS V14.00,2013-04-12 23:25:00,
2013-04-12 18:27:00,81.3,29.3,25.96,South,180,3.1,7.2,15,0.00,,,0.00,VWS V14.00,2013-04-12 23:27:00,
2013-04-12 18:29:00,79.7,28.0,25.96,South,173,9.2,9.2,15,0.00,,,0.00,VWS V14.00,2013-04-12 23:29:00,
2013-04-12 18:30:00,79.5,27.9,25.96,SW,223,4.9,4.9,15,0.00,,,0.00,VWS V14.00,2013-04-12 23:30:00,
2013-04-12 18:33:00,79.0,27.4,25.96,South,172,0.0,6.3,15,0.00,,,0.00,VWS V14.00,2013-04-12 23:33:00,
2013-04-12 18:35:00,78.6,28.7,25.96,South,169,5.8,8.3,16,0.00,,,0.00,VWS V14.00,2013-04-12 23:35:00,
2013-04-12 18:36:00,78.6,28.7,25.96,SSW,200,4.9,8.3,16,0.00,,,0.00,VWS V14.00,2013-04-12 23:36:00,
2013-04-12 18:38:00,78.3,28.4,25.96,South,178,0.0,8.3,16,0.00,,,0.00,VWS V14.00,2013-04-12 23:38:00,
2013-04-12 18:40:00,77.9,28.1,25.96,South,169,4.9,8.3,16,0.00,,,0.00,VWS V14.00,2013-04-12 23:40:00,
2013-04-12 18:41:00,77.9,28.1,25.96,SSE,159,3.1,8.3,16,0.00,,,0.00,VWS V14.00,2013-04-12 23:41:00,
2013-04-12 18:42:00,77.9,28.1,25.96,SSE,159,3.1,8.3,16,0.00,,,0.00,VWS V14.00,2013-04-12 23:42:00,
2013-04-12 18:45:00,77.9,28.1,25.96,South,183,5.4,8.3,16,0.00,,,0.00,VWS V14.00,2013-04-12 23:45:00,
2013-04-12 18:47:00,77.7,28.0,25.96,South,172,3.6,5.8,16,0.00,,,0.00,VWS V14.00,2013-04-12 23:47:00,
2013-04-12 18:50:00,77.7,28.0,25.96,SSE,157,0.0,8.7,16,0.00,,,0.00,VWS V14.00,2013-04-12 23:50:00,
2013-04-12 18:52:00,77.5,27.9,25.96,South,183,4.0,8.7,16,0.00,,,0.00,VWS V14.00,2013-04-12 23:52:00,
2013-04-12 18:54:00,77.4,27.7,25.96,South,173,3.6,8.7,16,0.00,,,0.00,VWS V14.00,2013-04-12 23:54:00,
2013-04-12 18:56:00,77.2,27.6,25.96,SSE,151,3.6,8.7,16,0.00,,,0.00,VWS V14.00,2013-04-12 23:56:00,
2013-04-12 18:58:00,77.2,27.6,25.96,ESE,104,6.3,8.7,16,0.00,,,0.00,VWS V14.00,2013-04-12 23:58:00,
2013-04-12 18:59:00,77.0,27.4,25.96,SE,130,2.7,8.7,16,0.00,,,0.00,VWS V14.00,2013-04-12 23:59:00,
2013-04-12 19:00:00,77.0,27.4,25.96,SE,136,2.7,8.7,16,0.00,,,0.00,VWS V14.00,2013-04-13 00:00:00,
2013-04-12 19:02:00,76.8,27.3,25.96,SSE,157,4.0,7.6,16,0.00,,,0.00,VWS V14.00,2013-04-13 00:02:00,
2013-04-12 19:04:00,76.6,27.1,25.96,South,182,5.4,8.1,16,0.00,,,0.00,VWS V14.00,2013-04-13 00:04:00,
2013-04-12 19:05:00,76.8,27.3,25.96,South,180,3.1,8.1,16,0.00,,,0.00,VWS V14.00,2013-04-13 00:05:00,
2013-04-12 19:08:00,76.6,27.1,25.96,SSE,151,0.0,8.1,16,0.00,,,0.00,VWS V14.00,2013-04-13 00:08:00,
2013-04-12 19:09:00,76.5,27.0,25.96,SSE,156,0.0,8.1,16,0.00,,,0.00,VWS V14.00,2013-04-13 00:09:00,
2013-04-12 19:10:00,76.5,27.0,25.96,SSE,156,0.0,8.1,16,0.00,,,0.00,VWS V14.00,2013-04-13 00:10:00,
2013-04-12 19:11:00,76.5,27.0,25.96,SE,137,0.0,8.1,16,0.00,,,0.00,VWS V14.00,2013-04-13 00:11:00,
2013-04-12 19:13:00,76.1,26.7,25.96,South,173,5.4,8.7,16,0.00,,,0.00,VWS V14.00,2013-04-13 00:13:00,
2013-04-12 19:15:00,76.1,26.7,25.96,SE,133,2.7,8.7,16,0.00,,,0.00,VWS V14.00,2013-04-13 00:15:00,
2013-04-12 19:16:00,75.9,26.5,25.96,South,182,3.1,5.4,16,0.00,,,0.00,VWS V14.00,2013-04-13 00:16:00,
2013-04-12 19:18:00,75.6,26.3,25.96,South,179,0.0,5.4,16,0.00,,,0.00,VWS V14.00,2013-04-13 00:18:00,
2013-04-12 19:20:00,75.4,26.1,25.96,SSE,164,0.0,5.4,16,0.00,,,0.00,VWS V14.00,2013-04-13 00:20:00,
2013-04-12 19:22:00,75.0,25.8,25.96,South,182,0.0,5.4,16,0.00,,,0.00,VWS V14.00,2013-04-13 00:22:00,
2013-04-12 19:23:00,75.0,25.8,25.96,SSE,159,3.6,6.3,16,0.00,,,0.00,VWS V14.00,2013-04-13 00:23:00,
2013-04-12 19:26:00,75.0,25.8,25.96,SSE,149,2.7,7.6,16,0.00,,,0.00,VWS V14.00,2013-04-13 00:26:00,
2013-04-12 19:27:00,75.0,25.8,25.96,South,170,2.2,7.6,16,0.00,,,0.00,VWS V14.00,2013-04-13 00:27:00,
2013-04-12 19:28:00,75.2,26.0,25.96,South,189,4.0,7.6,16,0.00,,,0.00,VWS V14.00,2013-04-13 00:28:00,
2013-04-12 19:32:00,75.4,26.1,25.96,South,175,2.7,4.0,16,0.00,,,0.00,VWS V14.00,2013-04-13 00:32:00,
2013-04-12 19:33:00,75.4,26.1,25.96,South,175,0.0,4.0,16,0.00,,,0.00,VWS V14.00,2013-04-13 00:33:00,
2013-04-12 19:34:00,75.2,26.0,25.93,SSW,195,4.9,4.9,16,0.00,,,0.00,VWS V14.00,2013-04-13 00:34:00,
2013-04-12 19:37:00,74.8,25.7,25.93,South,176,0.0,4.9,16,0.00,,,0.00,VWS V14.00,2013-04-13 00:37:00,
2013-04-12 19:38:00,74.7,25.5,25.93,South,175,0.0,4.9,16,0.00,,,0.00,VWS V14.00,2013-04-13 00:38:00,
2013-04-12 19:39:00,74.7,25.5,25.93,South,179,0.0,4.9,16,0.00,,,0.00,VWS V14.00,2013-04-13 00:39:00,
2013-04-12 19:42:00,74.3,25.2,25.93,South,179,0.0,4.9,16,0.00,,,0.00,VWS V14.00,2013-04-13 00:42:00,
2013-04-12 19:45:00,73.9,25.0,25.93,South,189,3.1,4.9,16,0.00,,,0.00,VWS V14.00,2013-04-13 00:45:00,
2013-04-12 19:47:00,73.4,24.5,25.93,South,189,0.0,0.0,16,0.00,,,0.00,VWS V14.00,2013-04-13 00:47:00,
2013-04-12 19:48:00,73.4,24.5,25.93,South,189,0.0,0.0,16,0.00,,,0.00,VWS V14.00,2013-04-13 00:48:00,
2013-04-12 19:50:00,72.9,25.5,25.93,South,179,0.0,3.1,17,0.00,,,0.00,VWS V14.00,2013-04-13 00:50:00,
2013-04-12 19:52:00,72.0,24.8,25.93,South,176,2.2,3.1,17,0.00,,,0.00,VWS V14.00,2013-04-13 00:52:00,
2013-04-12 19:54:00,71.8,24.7,25.93,South,176,0.0,3.1,17,0.00,,,0.00,VWS V14.00,2013-04-13 00:54:00,
2013-04-12 19:55:00,71.8,24.7,25.93,South,176,0.0,3.1,17,0.00,,,0.00,VWS V14.00,2013-04-13 00:55:00,
2013-04-12 19:57:00,71.4,24.4,25.93,SSE,168,0.0,3.1,17,0.00,,,0.00,VWS V14.00,2013-04-13 00:57:00,
2013-04-12 19:58:00,71.2,24.2,25.93,SSE,168,0.0,3.1,17,0.00,,,0.00,VWS V14.00,2013-04-13 00:58:00,
2013-04-12 20:00:00,70.7,23.8,25.93,South,177,0.0,0.0,17,0.00,,,0.00,VWS V14.00,2013-04-13 01:00:00,
2013-04-12 20:02:00,70.7,23.8,25.93,South,180,0.0,3.6,17,0.00,,,0.00,VWS V14.00,2013-04-13 01:02:00,
2013-04-12 20:03:00,70.5,23.6,25.93,South,180,0.0,3.6,17,0.00,,,0.00,VWS V14.00,2013-04-13 01:03:00,
2013-04-12 20:06:00,70.3,23.5,25.93,South,181,0.0,3.6,17,0.00,,,0.00,VWS V14.00,2013-04-13 01:06:00,
2013-04-12 20:07:00,70.2,23.4,25.93,South,181,0.0,3.6,17,0.00,,,0.00,VWS V14.00,2013-04-13 01:07:00,
2013-04-12 20:08:00,70.2,23.4,25.93,South,181,0.0,3.6,17,0.00,,,0.00,VWS V14.00,2013-04-13 01:08:00,
2013-04-12 20:12:00,69.8,23.1,25.93,South,177,0.0,3.6,17,0.00,,,0.00,VWS V14.00,2013-04-13 01:12:00,
2013-04-12 20:13:00,69.8,23.1,25.93,South,188,0.0,4.0,17,0.00,,,0.00,VWS V14.00,2013-04-13 01:13:00,
2013-04-12 20:14:00,69.8,23.1,25.93,South,187,2.2,4.0,17,0.00,,,0.00,VWS V14.00,2013-04-13 01:14:00,
2013-04-12 20:17:00,69.6,24.3,25.93,South,184,0.0,0.0,18,0.00,,,0.00,VWS V14.00,2013-04-13 01:17:00,
2013-04-12 20:18:00,69.6,24.3,25.93,SSE,161,0.0,4.9,18,0.00,,,0.00,VWS V14.00,2013-04-13 01:18:00,
2013-04-12 20:19:00,69.6,24.3,25.93,SSE,166,2.7,4.9,18,0.00,,,0.00,VWS V14.00,2013-04-13 01:19:00,
2013-04-12 20:20:00,69.4,24.1,25.93,SSE,166,0.0,4.9,18,0.00,,,0.00,VWS V14.00,2013-04-13 01:20:00,
2013-04-12 20:22:00,69.3,24.0,25.93,SSE,167,0.0,4.9,18,0.00,,,0.00,VWS V14.00,2013-04-13 01:22:00,
2013-04-12 20:24:00,69.1,23.8,25.93,South,188,0.0,4.9,18,0.00,,,0.00,VWS V14.00,2013-04-13 01:24:00,
2013-04-12 20:25:00,69.3,24.0,25.93,South,177,0.0,4.9,18,0.00,,,0.00,VWS V14.00,2013-04-13 01:25:00,
2013-04-12 20:27:00,69.4,24.1,25.93,South,186,0.0,4.9,18,0.00,,,0.00,VWS V14.00,2013-04-13 01:27:00,
2013-04-12 20:29:00,69.4,24.1,25.93,South,180,0.0,4.9,18,0.00,,,0.00,VWS V14.00,2013-04-13 01:29:00,
2013-04-12 20:30:00,69.4,24.1,25.93,South,180,0.0,4.9,18,0.00,,,0.00,VWS V14.00,2013-04-13 01:30:00,
2013-04-12 20:32:00,69.4,24.1,25.93,SSE,166,0.0,3.1,18,0.00,,,0.00,VWS V14.00,2013-04-13 01:32:00,
2013-04-12 20:35:00,69.1,23.8,25.93,SSE,154,0.0,3.6,18,0.00,,,0.00,VWS V14.00,2013-04-13 01:35:00,
2013-04-12 20:37:00,69.1,23.8,25.93,South,181,2.7,3.6,18,0.00,,,0.00,VWS V14.00,2013-04-13 01:37:00,
2013-04-12 20:39:00,69.1,23.8,25.93,South,172,3.1,3.6,18,0.00,,,0.00,VWS V14.00,2013-04-13 01:39:00,
2013-04-12 20:40:00,68.9,23.7,25.93,South,174,0.0,3.6,18,0.00,,,0.00,VWS V14.00,2013-04-13 01:40:00,
2013-04-12 20:43:00,68.9,23.7,25.93,SE,141,0.0,3.6,18,0.00,,,0.00,VWS V14.00,2013-04-13 01:43:00,
2013-04-12 20:44:00,68.9,23.7,25.93,SSE,153,0.0,3.6,18,0.00,,,0.00,VWS V14.00,2013-04-13 01:44:00,
2013-04-12 20:45:00,68.9,23.7,25.93,South,174,2.2,3.6,18,0.00,,,0.00,VWS V14.00,2013-04-13 01:45:00,
2013-04-12 20:49:00,68.7,23.5,25.93,South,184,0.0,3.6,18,0.00,,,0.00,VWS V14.00,2013-04-13 01:49:00,
2013-04-12 20:50:00,68.7,23.5,25.93,South,184,0.0,3.6,18,0.00,,,0.00,VWS V14.00,2013-04-13 01:50:00,
2013-04-12 20:52:00,68.7,23.5,25.93,SSE,163,2.7,3.6,18,0.00,,,0.00,VWS V14.00,2013-04-13 01:52:00,
2013-04-12 20:55:00,68.7,23.5,25.93,SSE,153,0.0,4.0,18,0.00,,,0.00,VWS V14.00,2013-04-13 01:55:00,
2013-04-12 20:57:00,68.7,23.5,25.93,SSE,165,0.0,4.0,18,0.00,,,0.00,VWS V14.00,2013-04-13 01:57:00,
2013-04-12 20:59:00,68.7,23.5,25.93,South,176,0.0,4.0,18,0.00,,,0.00,VWS V14.00,2013-04-13 01:59:00,
2013-04-12 21:00:00,68.7,23.5,25.93,SSE,166,3.6,3.6,18,0.00,,,0.00,VWS V14.00,2013-04-13 02:00:00,
2013-04-12 21:02:00,68.5,23.4,25.93,SSE,166,0.0,3.6,18,0.00,,,0.00,VWS V14.00,2013-04-13 02:02:00,
2013-04-12 21:04:00,68.5,23.4,25.93,South,174,0.0,3.6,18,0.00,,,0.00,VWS V14.00,2013-04-13 02:04:00,
2013-04-12 21:05:00,68.5,23.4,25.93,South,180,0.0,5.8,18,0.00,,,0.00,VWS V14.00,2013-04-13 02:05:00,
2013-04-12 21:07:00,68.4,23.2,25.93,South,185,0.0,5.8,18,0.00,,,0.00,VWS V14.00,2013-04-13 02:07:00,
2013-04-12 21:09:00,68.2,23.1,25.93,South,171,3.6,5.8,18,0.00,,,0.00,VWS V14.00,2013-04-13 02:09:00,
2013-04-12 21:10:00,68.2,23.1,25.93,South,188,0.0,5.8,18,0.00,,,0.00,VWS V14.00,2013-04-13 02:10:00,
2013-04-12 21:12:00,68.0,23.0,25.93,SSE,156,0.0,5.8,18,0.00,,,0.00,VWS V14.00,2013-04-13 02:12:00,
2013-04-12 21:14:00,67.8,22.8,25.93,South,181,0.0,5.8,18,0.00,,,0.00,VWS V14.00,2013-04-13 02:14:00,
2013-04-12 21:15:00,67.8,22.8,25.93,SSE,165,3.1,5.8,18,0.00,,,0.00,VWS V14.00,2013-04-13 02:15:00,
2013-04-12 21:16:00,67.8,22.8,25.93,South,173,0.0,2.7,18,0.00,,,0.00,VWS V14.00,2013-04-13 02:16:00,
2013-04-12 21:19:00,67.6,22.6,25.90,South,178,2.2,4.0,18,0.00,,,0.00,VWS V14.00,2013-04-13 02:19:00,
2013-04-12 21:20:00,67.8,22.8,25.90,South,170,0.0,4.0,18,0.00,,,0.00,VWS V14.00,2013-04-13 02:20:00,
2013-04-12 21:22:00,67.8,22.8,25.90,South,170,0.0,4.0,18,0.00,,,0.00,VWS V14.00,2013-04-13 02:22:00,
2013-04-12 21:24:00,67.8,22.8,25.90,SSE,159,0.0,4.0,18,0.00,,,0.00,VWS V14.00,2013-04-13 02:24:00,
2013-04-12 21:25:00,67.6,22.6,25.90,SSE,159,0.0,4.0,18,0.00,,,0.00,VWS V14.00,2013-04-13 02:25:00,
2013-04-12 21:27:00,67.6,22.6,25.90,South,176,2.2,4.0,18,0.00,,,0.00,VWS V14.00,2013-04-13 02:27:00,
2013-04-12 21:29:00,67.5,22.5,25.90,ENE,62,3.6,4.0,18,0.00,,,0.00,VWS V14.00,2013-04-13 02:29:00,
2013-04-12 21:30:00,67.6,22.6,25.90,SSW,202,4.0,4.0,18,0.00,,,0.00,VWS V14.00,2013-04-13 02:30:00,
2013-04-12 21:31:00,67.6,22.6,25.90,SE,137,0.0,4.0,18,0.00,,,0.00,VWS V14.00,2013-04-13 02:31:00,
2013-04-12 21:33:00,67.5,22.5,25.90,South,182,0.0,4.0,18,0.00,,,0.00,VWS V14.00,2013-04-13 02:33:00,
2013-04-12 21:35:00,67.5,22.5,25.90,ESE,115,0.0,4.9,18,0.00,,,0.00,VWS V14.00,2013-04-13 02:35:00,
2013-04-12 21:37:00,67.3,22.4,25.90,East,92,2.7,4.9,18,0.00,,,0.00,VWS V14.00,2013-04-13 02:37:00,
2013-04-12 21:38:00,67.3,16.5,25.90,SSW,198,5.8,5.8,14,0.00,,,0.00,VWS V14.00,2013-04-13 02:38:00,
2013-04-12 21:39:00,67.3,22.4,25.90,SE,146,2.7,5.8,18,0.00,,,0.00,VWS V14.00,2013-04-13 02:39:00,
2013-04-12 21:40:00,67.5,22.5,25.90,SSE,148,0.0,5.8,18,0.00,,,0.00,VWS V14.00,2013-04-13 02:40:00,
2013-04-12 21:44:00,67.3,22.4,25.90,SE,126,0.0,5.8,18,0.00,,,0.00,VWS V14.00,2013-04-13 02:44:00,
2013-04-12 21:45:00,67.1,22.2,25.90,SSW,197,2.2,2.2,18,0.00,,,0.00,VWS V14.00,2013-04-13 02:45:00,
2013-04-12 21:47:00,66.7,21.9,25.90,SSW,197,0.0,2.2,18,0.00,,,0.00,VWS V14.00,2013-04-13 02:47:00,
2013-04-12 21:49:00,66.9,22.1,25.90,ESE,122,2.7,4.0,18,0.00,,,0.00,VWS V14.00,2013-04-13 02:49:00,
2013-04-12 21:50:00,66.7,21.9,25.90,SSE,151,0.0,4.0,18,0.00,,,0.00,VWS V14.00,2013-04-13 02:50:00,
2013-04-12 21:52:00,66.9,22.1,25.90,East,101,3.1,4.0,18,0.00,,,0.00,VWS V14.00,2013-04-13 02:52:00,
2013-04-12 21:54:00,66.9,22.1,25.90,SSW,197,2.2,4.0,18,0.00,,,0.00,VWS V14.00,2013-04-13 02:54:00,
2013-04-12 21:55:00,66.9,22.1,25.90,SSE,160,0.0,4.0,18,0.00,,,0.00,VWS V14.00,2013-04-13 02:55:00,
2013-04-12 21:56:00,67.1,22.2,25.90,SSE,160,0.0,4.0,18,0.00,,,0.00,VWS V14.00,2013-04-13 02:56:00,
2013-04-12 21:57:00,67.1,22.2,25.90,South,190,0.0,4.0,18,0.00,,,0.00,VWS V14.00,2013-04-13 02:57:00,
2013-04-12 22:00:00,66.9,22.1,25.90,SE,125,2.7,4.0,18,0.00,,,0.00,VWS V14.00,2013-04-13 03:00:00,
2013-04-12 22:01:00,67.1,22.2,25.90,South,180,0.0,4.9,18,0.00,,,0.00,VWS V14.00,2013-04-13 03:01:00,
2013-04-12 22:02:00,67.1,22.2,25.90,ESE,118,0.0,4.9,18,0.00,,,0.00,VWS V14.00,2013-04-13 03:02:00,
2013-04-12 22:03:00,67.1,22.2,25.90,NNE,27,0.0,4.9,18,0.00,,,0.00,VWS V14.00,2013-04-13 03:03:00,
2013-04-12 22:05:00,67.1,22.2,25.90,South,179,2.2,4.9,18,0.00,,,0.00,VWS V14.00,2013-04-13 03:05:00,
2013-04-12 22:06:00,67.1,22.2,25.90,South,181,3.1,4.9,18,0.00,,,0.00,VWS V14.00,2013-04-13 03:06:00,
2013-04-12 22:07:00,67.1,22.2,25.90,SSE,164,2.2,4.9,18,0.00,,,0.00,VWS V14.00,2013-04-13 03:07:00,
2013-04-12 22:08:00,67.1,22.2,25.90,SE,144,2.7,4.9,18,0.00,,,0.00,VWS V14.00,2013-04-13 03:08:00,
2013-04-12 22:10:00,67.1,22.2,25.90,SE,137,0.0,4.9,18,0.00,,,0.00,VWS V14.00,2013-04-13 03:10:00,
2013-04-12 22:12:00,67.1,22.2,25.90,South,183,3.1,5.4,18,0.00,,,0.00,VWS V14.00,2013-04-13 03:12:00,
2013-04-12 22:13:00,67.3,22.4,25.90,South,183,0.0,5.4,18,0.00,,,0.00,VWS V14.00,2013-04-13 03:13:00,
2013-04-12 22:17:00,67.1,22.2,25.90,SSE,168,0.0,5.4,18,0.00,,,0.00,VWS V14.00,2013-04-13 03:17:00,
2013-04-12 22:18:00,66.9,22.1,25.90,SSE,168,0.0,5.4,18,0.00,,,0.00,VWS V14.00,2013-04-13 03:18:00,
2013-04-12 22:19:00,66.9,22.1,25.90,SSE,168,0.0,5.4,18,0.00,,,0.00,VWS V14.00,2013-04-13 03:19:00,
2013-04-12 22:23:00,66.6,21.8,25.90,SSE,153,2.2,5.4,18,0.00,,,0.00,VWS V14.00,2013-04-13 03:23:00,
2013-04-12 22:24:00,66.6,21.8,25.90,SSW,196,5.4,5.4,18,0.00,,,0.00,VWS V14.00,2013-04-13 03:24:00,
2013-04-12 22:25:00,66.7,21.9,25.90,ESE,118,0.0,5.8,18,0.00,,,0.00,VWS V14.00,2013-04-13 03:25:00,
2013-04-12 22:28:00,66.6,21.8,25.90,SSE,154,0.0,5.8,18,0.00,,,0.00,VWS V14.00,2013-04-13 03:28:00,
2013-04-12 22:29:00,66.6,21.8,25.90,SE,143,0.0,5.8,18,0.00,,,0.00,VWS V14.00,2013-04-13 03:29:00,
2013-04-12 22:32:00,66.4,21.6,25.90,South,177,0.0,3.1,18,0.00,,,0.00,VWS V14.00,2013-04-13 03:32:00,
2013-04-12 22:34:00,66.2,21.5,25.90,SE,128,2.7,3.1,18,0.00,,,0.00,VWS V14.00,2013-04-13 03:34:00,
2013-04-12 22:35:00,66.2,21.5,25.90,SW,221,2.7,3.6,18,0.00,,,0.00,VWS V14.00,2013-04-13 03:35:00,
2013-04-12 22:38:00,66.4,21.6,25.90,ENE,66,0.0,4.9,18,0.00,,,0.00,VWS V14.00,2013-04-13 03:38:00,
2013-04-12 22:39:00,66.6,21.8,25.90,SE,127,2.7,4.9,18,0.00,,,0.00,VWS V14.00,2013-04-13 03:39:00,
2013-04-12 22:40:00,66.4,21.6,25.90,South,190,3.1,4.9,18,0.00,,,0.00,VWS V14.00,2013-04-13 03:40:00,
2013-04-12 22:43:00,66.4,21.6,25.90,SE,125,2.7,5.8,18,0.00,,,0.00,VWS V14.00,2013-04-13 03:43:00,
2013-04-12 22:45:00,66.6,21.8,25.90,SE,144,0.0,5.8,18,0.00,,,0.00,VWS V14.00,2013-04-13 03:45:00,
2013-04-12 22:48:00,66.4,21.6,25.90,SE,131,2.2,5.8,18,0.00,,,0.00,VWS V14.00,2013-04-13 03:48:00,
2013-04-12 22:49:00,66.2,21.5,25.90,South,177,2.2,5.8,18,0.00,,,0.00,VWS V14.00,2013-04-13 03:49:00,
2013-04-12 22:51:00,66.4,21.6,25.90,SSE,155,3.1,5.8,18,0.00,,,0.00,VWS V14.00,2013-04-13 03:51:00,
2013-04-12 22:54:00,66.6,21.8,25.90,South,188,0.0,5.8,18,0.00,,,0.00,VWS V14.00,2013-04-13 03:54:00,
2013-04-12 22:56:00,66.2,21.5,25.90,SSW,198,0.0,5.8,18,0.00,,,0.00,VWS V14.00,2013-04-13 03:56:00,
2013-04-12 22:57:00,66.2,21.5,25.90,SSW,198,2.2,5.8,18,0.00,,,0.00,VWS V14.00,2013-04-13 03:57:00,
2013-04-12 22:59:00,66.2,21.5,25.90,SSE,150,4.0,5.8,18,0.00,,,0.00,VWS V14.00,2013-04-13 03:59:00,
2013-04-12 23:00:00,66.4,21.6,25.90,South,175,0.0,5.8,18,0.00,,,0.00,VWS V14.00,2013-04-13 04:00:00,
2013-04-12 23:01:00,66.2,21.5,25.90,South,169,4.5,4.5,18,0.00,,,0.00,VWS V14.00,2013-04-13 04:01:00,
2013-04-12 23:03:00,66.2,21.5,25.90,SW,218,0.0,4.5,18,0.00,,,0.00,VWS V14.00,2013-04-13 04:03:00,
2013-04-12 23:05:00,66.2,21.5,25.90,SSE,166,0.0,4.5,18,0.00,,,0.00,VWS V14.00,2013-04-13 04:05:00,
2013-04-12 23:07:00,66.2,21.5,25.90,SSE,154,3.1,4.5,18,0.00,,,0.00,VWS V14.00,2013-04-13 04:07:00,
2013-04-12 23:09:00,66.2,21.5,25.90,South,171,2.7,4.5,18,0.00,,,0.00,VWS V14.00,2013-04-13 04:09:00,
2013-04-12 23:10:00,66.0,21.3,25.90,South,179,3.1,4.5,18,0.00,,,0.00,VWS V14.00,2013-04-13 04:10:00,
2013-04-12 23:12:00,66.0,21.3,25.90,South,171,5.4,5.4,18,0.00,,,0.00,VWS V14.00,2013-04-13 04:12:00,
2013-04-12 23:14:00,66.0,21.3,25.90,South,174,2.7,5.4,18,0.00,,,0.00,VWS V14.00,2013-04-13 04:14:00,
2013-04-12 23:16:00,66.0,21.3,25.90,South,177,2.7,2.7,18,0.00,,,0.00,VWS V14.00,2013-04-13 04:16:00,
2013-04-12 23:18:00,66.0,21.3,25.90,South,191,0.0,4.0,18,0.00,,,0.00,VWS V14.00,2013-04-13 04:18:00,
2013-04-12 23:20:00,65.8,21.2,25.90,SSE,150,2.7,8.7,18,0.00,,,0.00,VWS V14.00,2013-04-13 04:20:00,
2013-04-12 23:23:00,65.5,20.9,25.90,South,176,0.0,8.7,18,0.00,,,0.00,VWS V14.00,2013-04-13 04:23:00,
2013-04-12 23:24:00,65.5,20.9,25.90,South,191,2.7,8.7,18,0.00,,,0.00,VWS V14.00,2013-04-13 04:24:00,
2013-04-12 23:27:00,65.3,20.7,25.90,South,182,3.1,8.7,18,0.00,,,0.00,VWS V14.00,2013-04-13 04:27:00,
2013-04-12 23:28:00,65.3,20.7,25.90,South,173,0.0,8.7,18,0.00,,,0.00,VWS V14.00,2013-04-13 04:28:00,
2013-04-12 23:29:00,65.3,20.7,25.90,South,171,3.1,8.7,18,0.00,,,0.00,VWS V14.00,2013-04-13 04:29:00,
2013-04-12 23:30:00,65.1,20.6,25.90,South,183,2.7,2.7,18,0.00,,,0.00,VWS V14.00,2013-04-13 04:30:00,
2013-04-12 23:35:00,64.9,20.4,25.90,South,176,3.1,5.4,18,0.00,,,0.00,VWS V14.00,2013-04-13 04:35:00,
2013-04-12 23:36:00,64.8,20.3,25.90,South,182,0.0,5.4,18,0.00,,,0.00,VWS V14.00,2013-04-13 04:36:00,
2013-04-12 23:40:00,64.8,20.3,25.90,South,189,0.0,6.3,18,0.00,,,0.00,VWS V14.00,2013-04-13 04:40:00,
2013-04-12 23:41:00,64.8,20.3,25.90,SSE,151,2.2,6.3,18,0.00,,,0.00,VWS V14.00,2013-04-13 04:41:00,
2013-04-12 23:42:00,64.8,20.3,25.90,SSE,155,0.0,6.3,18,0.00,,,0.00,VWS V14.00,2013-04-13 04:42:00,
2013-04-12 23:47:00,64.4,20.0,25.90,SSE,160,0.0,3.6,18,0.00,,,0.00,VWS V14.00,2013-04-13 04:47:00,
2013-04-12 23:48:00,64.4,20.0,25.90,South,186,2.7,3.6,18,0.00,,,0.00,VWS V14.00,2013-04-13 04:48:00,
2013-04-12 23:52:00,64.2,21.1,25.90,SSW,196,0.0,3.6,19,0.00,,,0.00,VWS V14.00,2013-04-13 04:52:00,
2013-04-12 23:53:00,64.0,21.0,25.90,SSW,196,0.0,3.6,19,0.00,,,0.00,VWS V14.00,2013-04-13 04:53:00,
2013-04-12 23:54:00,63.9,20.8,25.90,SSW,197,3.1,3.6,19,0.00,,,0.00,VWS V14.00,2013-04-13 04:54:00,
2013-04-12 23:57:00,63.7,20.7,25.90,South,181,0.0,3.6,19,0.00,,,0.00,VWS V14.00,2013-04-13 04:57:00,
2013-04-12 23:58:00,63.7,20.7,25.90,South,181,0.0,3.6,19,0.00,,,0.00,VWS V14.00,2013-04-13 04:58:00,